Time,TemperatureF,DewpointF,PressureIn,WindDirection,WindDirectionDegrees,WindSpeedMPH,WindSpeedGustMPH,Humidity,HourlyPrecipIn,Conditions,Clouds,dailyrainin,SoftwareType,DateUTC
2013-02-08 00:00:00,27.6,24.8,30.24,ESE,110,4.0,4.0,89,0.00,,,0.00,Wunderground v.1.15,2013-02-08 05:00:00,
2013-02-08 00:02:00,27.6,24.8,30.24,SE,126,3.0,11.0,89,0.00,,,0.00,Wunderground v.1.15,2013-02-08 05:02:00,
2013-02-08 00:04:00,27.6,25.1,30.24,SE,129,3.0,11.0,90,0.00,,,0.00,Wunderground v.1.15,2013-02-08 05:04:00,
2013-02-08 00:05:00,27.6,25.1,30.24,ESE,120,3.0,11.0,90,0.00,,,0.00,Wunderground v.1.15,2013-02-08 05:05:00,
2013-02-08 00:07:00,27.6,25.1,30.24,SE,126,2.0,11.0,90,0.00,,,0.00,Wunderground v.1.15,2013-02-08 05:07:00,
2013-02-08 00:11:00,27.6,25.1,30.23,East,95,2.0,2.0,90,0.00,,,0.00,Wunderground v.1.15,2013-02-08 05:11:00,
2013-02-08 00:13:00,27.6,25.1,30.23,East,84,2.0,5.0,90,0.00,,,0.00,Wunderground v.1.15,2013-02-08 05:13:00,
2013-02-08 00:14:00,27.6,25.1,30.23,SE,136,2.0,7.0,90,0.00,,,0.00,Wunderground v.1.15,2013-02-08 05:14:00,
2013-02-08 00:16:00,27.6,25.1,30.23,SE,129,3.0,7.0,90,0.00,,,0.00,Wunderground v.1.15,2013-02-08 05:16:00,
2013-02-08 00:18:00,27.6,25.1,30.23,SSE,149,4.0,7.0,90,0.00,,,0.00,Wunderground v.1.15,2013-02-08 05:18:00,
2013-02-08 00:23:00,27.6,25.1,30.23,SE,143,4.0,5.0,90,0.00,,,0.00,Wunderground v.1.15,2013-02-08 05:23:00,
2013-02-08 00:25:00,27.5,25.0,30.22,East,92,3.0,5.0,90,0.00,,,0.00,Wunderground v.1.15,2013-02-08 05:25:00,
2013-02-08 00:30:00,27.5,25.0,30.22,SE,142,2.0,5.0,90,0.00,,,0.00,Wunderground v.1.15,2013-02-08 05:30:00,
2013-02-08 00:31:00,27.5,25.0,30.22,SE,144,2.0,7.0,90,0.00,,,0.00,Wunderground v.1.15,2013-02-08 05:31:00,
2013-02-08 00:33:00,27.5,25.0,30.22,ESE,107,2.0,13.0,90,0.00,,,0.00,Wunderground v.1.15,2013-02-08 05:33:00,
2013-02-08 00:39:00,27.5,25.2,30.22,East,91,4.0,13.0,91,0.00,,,0.00,Wunderground v.1.15,2013-02-08 05:39:00,
2013-02-08 00:42:00,27.5,25.0,30.21,ESE,105,4.0,5.0,90,0.00,,,0.00,Wunderground v.1.15,2013-02-08 05:42:00,
2013-02-08 00:44:00,27.5,25.0,30.21,ESE,107,4.0,5.0,90,0.00,,,0.00,Wunderground v.1.15,2013-02-08 05:44:00,
2013-02-08 00:45:00,27.5,25.0,30.21,ESE,115,4.0,8.0,90,0.00,,,0.00,Wunderground v.1.15,2013-02-08 05:45:00,
2013-02-08 00:47:00,27.5,25.2,30.21,ESE,106,4.0,9.0,91,0.00,,,0.00,Wunderground v.1.15,2013-02-08 05:47:00,
2013-02-08 00:50:00,27.4,25.1,30.20,East,93,4.0,9.0,91,0.00,,,0.00,Wunderground v.1.15,2013-02-08 05:50:00,
2013-02-08 00:52:00,27.4,25.1,30.20,ESE,111,3.0,9.0,91,0.00,,,0.00,Wunderground v.1.15,2013-02-08 05:52:00,
2013-02-08 00:53:00,27.4,25.1,30.20,SE,124,4.0,9.0,91,0.00,,,0.00,Wunderground v.1.15,2013-02-08 05:53:00,
2013-02-08 00:54:00,27.4,25.1,30.20,East,96,4.0,9.0,91,0.00,,,0.00,Wunderground v.1.15,2013-02-08 05:54:00,
2013-02-08 00:55:00,27.4,25.1,30.20,ESE,108,4.0,9.0,91,0.00,,,0.00,Wunderground v.1.15,2013-02-08 05:55:00,
2013-02-08 00:57:00,27.4,25.1,30.20,SE,132,4.0,9.0,91,0.00,,,0.00,Wunderground v.1.15,2013-02-08 05:57:00,
2013-02-08 01:02:00,27.3,25.0,30.20,East,101,4.0,14.0,91,0.00,,,0.00,Wunderground v.1.15,2013-02-08 06:02:00,
2013-02-08 01:04:00,27.4,25.1,30.19,SE,143,4.0,14.0,91,0.00,,,0.00,Wunderground v.1.15,2013-02-08 06:04:00,
2013-02-08 01:08:00,27.4,25.1,30.19,SE,135,4.0,14.0,91,0.00,,,0.00,Wunderground v.1.15,2013-02-08 06:08:00,
2013-02-08 01:10:00,27.4,25.1,30.19,ESE,103,4.0,6.0,91,0.00,,,0.00,Wunderground v.1.15,2013-02-08 06:10:00,
2013-02-08 01:13:00,27.4,25.1,30.19,ESE,106,4.0,6.0,91,0.00,,,0.00,Wunderground v.1.15,2013-02-08 06:13:00,
2013-02-08 01:14:00,27.4,25.1,30.19,ESE,105,4.0,6.0,91,0.00,,,0.00,Wunderground v.1.15,2013-02-08 06:14:00,
2013-02-08 01:17:00,27.4,25.1,30.19,SE,128,4.0,7.0,91,0.00,,,0.00,Wunderground v.1.15,2013-02-08 06:17:00,
2013-02-08 01:18:00,27.4,25.1,30.19,East,86,4.0,7.0,91,0.00,,,0.00,Wunderground v.1.15,2013-02-08 06:18:00,
2013-02-08 01:21:00,27.4,25.1,30.19,ESE,109,4.0,16.0,91,0.00,,,0.00,Wunderground v.1.15,2013-02-08 06:21:00,
2013-02-08 01:23:00,27.5,25.2,30.18,East,83,4.0,16.0,91,0.00,,,0.00,Wunderground v.1.15,2013-02-08 06:23:00,
2013-02-08 01:26:00,27.6,25.1,30.18,ESE,111,3.0,16.0,90,0.00,,,0.00,Wunderground v.1.15,2013-02-08 06:26:00,
2013-02-08 01:27:00,27.6,25.3,30.18,SSE,160,3.0,16.0,91,0.00,,,0.00,Wunderground v.1.15,2013-02-08 06:27:00,
2013-02-08 01:28:00,27.6,25.3,30.18,East,84,4.0,16.0,91,0.00,,,0.00,Wunderground v.1.15,2013-02-08 06:28:00,
2013-02-08 01:33:00,27.6,25.1,30.18,ESE,123,4.0,15.0,90,0.00,,,0.00,Wunderground v.1.15,2013-02-08 06:33:00,
2013-02-08 01:34:00,27.6,25.1,30.18,SE,144,4.0,15.0,90,0.00,,,0.00,Wunderground v.1.15,2013-02-08 06:34:00,
2013-02-08 01:38:00,27.6,25.1,30.18,ESE,106,4.0,15.0,90,0.00,,,0.00,Wunderground v.1.15,2013-02-08 06:38:00,
2013-02-08 01:39:00,27.6,25.1,30.17,ESE,113,4.0,15.0,90,0.00,,,0.00,Wunderground v.1.15,2013-02-08 06:39:00,
2013-02-08 01:44:00,27.6,25.1,30.17,ESE,114,4.0,7.0,90,0.00,,,0.00,Wunderground v.1.15,2013-02-08 06:44:00,
2013-02-08 01:45:00,27.6,25.1,30.17,ESE,121,4.0,7.0,90,0.00,,,0.00,Wunderground v.1.15,2013-02-08 06:45:00,
2013-02-08 01:48:00,27.5,25.0,30.17,ESE,104,4.0,11.0,90,0.00,,,0.00,Wunderground v.1.15,2013-02-08 06:48:00,
2013-02-08 01:50:00,27.6,25.1,30.17,ESE,109,4.0,8.0,90,0.00,,,0.00,Wunderground v.1.15,2013-02-08 06:50:00,
2013-02-08 01:52:00,27.6,25.1,30.17,East,87,4.0,8.0,90,0.00,,,0.00,Wunderground v.1.15,2013-02-08 06:52:00,
2013-02-08 01:53:00,27.5,25.0,30.16,ENE,65,4.0,8.0,90,0.00,,,0.00,Wunderground v.1.15,2013-02-08 06:53:00,
2013-02-08 01:56:00,27.5,25.0,30.16,SE,130,4.0,8.0,90,0.00,,,0.00,Wunderground v.1.15,2013-02-08 06:56:00,
2013-02-08 01:58:00,27.4,24.9,30.16,SE,130,3.0,8.0,90,0.00,,,0.00,Wunderground v.1.15,2013-02-08 06:58:00,
2013-02-08 01:59:00,27.4,24.9,30.16,East,95,3.0,8.0,90,0.00,,,0.00,Wunderground v.1.15,2013-02-08 06:59:00,
2013-02-08 02:01:00,27.4,24.9,30.16,ESE,104,3.0,16.0,90,0.00,,,0.00,Wunderground v.1.15,2013-02-08 07:01:00,
2013-02-08 02:03:00,27.4,24.9,30.16,East,84,3.0,16.0,90,0.00,,,0.00,Wunderground v.1.15,2013-02-08 07:03:00,
2013-02-08 02:04:00,27.4,24.9,30.16,ESE,106,3.0,16.0,90,0.00,,,0.00,Wunderground v.1.15,2013-02-08 07:04:00,
2013-02-08 02:07:00,27.4,24.9,30.16,ESE,109,3.0,16.0,90,0.00,,,0.00,Wunderground v.1.15,2013-02-08 07:07:00,
2013-02-08 02:09:00,27.5,25.0,30.16,ENE,67,3.0,16.0,90,0.00,,,0.00,Wunderground v.1.15,2013-02-08 07:09:00,
2013-02-08 02:11:00,27.5,25.0,30.16,ESE,103,3.0,4.0,90,0.00,,,0.00,Wunderground v.1.15,2013-02-08 07:11:00,
2013-02-08 02:14:00,27.6,25.1,30.16,ESE,115,3.0,7.0,90,0.00,,,0.00,Wunderground v.1.15,2013-02-08 07:14:00,
2013-02-08 02:16:00,27.6,25.1,30.16,ESE,121,3.0,7.0,90,0.00,,,0.00,Wunderground v.1.15,2013-02-08 07:16:00,
2013-02-08 02:18:00,27.6,25.1,30.16,SE,134,3.0,7.0,90,0.00,,,0.00,Wunderground v.1.15,2013-02-08 07:18:00,
2013-02-08 02:21:00,27.6,24.8,30.16,East,88,4.0,4.0,89,0.00,,,0.00,Wunderground v.1.15,2013-02-08 07:21:00,
2013-02-08 02:23:00,27.7,24.9,30.15,East,92,4.0,4.0,89,0.00,,,0.00,Wunderground v.1.15,2013-02-08 07:23:00,
2013-02-08 02:25:00,27.7,24.9,30.15,ESE,118,4.0,4.0,89,0.00,,,0.00,Wunderground v.1.15,2013-02-08 07:25:00,
2013-02-08 02:26:00,27.8,25.0,30.15,ESE,103,4.0,9.0,89,0.00,,,0.00,Wunderground v.1.15,2013-02-08 07:26:00,
2013-02-08 02:27:00,27.8,25.0,30.15,East,86,4.0,9.0,89,0.00,,,0.00,Wunderground v.1.15,2013-02-08 07:27:00,
2013-02-08 02:28:00,27.8,25.0,30.15,ESE,117,3.0,9.0,89,0.00,,,0.00,Wunderground v.1.15,2013-02-08 07:28:00,
2013-02-08 02:32:00,27.9,25.1,30.15,ESE,113,3.0,13.0,89,0.00,,,0.00,Wunderground v.1.15,2013-02-08 07:32:00,
2013-02-08 02:37:00,28.0,25.2,30.15,NE,51,3.0,13.0,89,0.00,,,0.00,Wunderground v.1.15,2013-02-08 07:37:00,
2013-02-08 02:38:00,28.0,25.2,30.15,ESE,117,4.0,13.0,89,0.00,,,0.00,Wunderground v.1.15,2013-02-08 07:38:00,
2013-02-08 02:39:00,28.0,25.2,30.15,ESE,104,4.0,13.0,89,0.00,,,0.00,Wunderground v.1.15,2013-02-08 07:39:00,
2013-02-08 02:42:00,28.0,25.2,30.15,ESE,113,5.0,7.0,89,0.00,,,0.00,Wunderground v.1.15,2013-02-08 07:42:00,
2013-02-08 02:44:00,28.0,25.2,30.15,East,95,5.0,7.0,89,0.00,,,0.00,Wunderground v.1.15,2013-02-08 07:44:00,
2013-02-08 02:49:00,28.0,25.2,30.14,SE,129,4.0,7.0,89,0.00,,,0.00,Wunderground v.1.15,2013-02-08 07:49:00,
2013-02-08 02:50:00,28.0,25.2,30.14,SE,130,4.0,6.0,89,0.00,,,0.00,Wunderground v.1.15,2013-02-08 07:50:00,
2013-02-08 02:51:00,28.1,25.3,30.14,ESE,102,4.0,6.0,89,0.00,,,0.00,Wunderground v.1.15,2013-02-08 07:51:00,
2013-02-08 02:56:00,28.1,25.3,30.14,SE,136,4.0,7.0,89,0.00,,,0.00,Wunderground v.1.15,2013-02-08 07:56:00,
2013-02-08 02:57:00,28.0,25.2,30.14,ESE,115,4.0,9.0,89,0.00,,,0.00,Wunderground v.1.15,2013-02-08 07:57:00,
2013-02-08 02:59:00,28.0,25.2,30.13,ENE,71,4.0,9.0,89,0.00,,,0.00,Wunderground v.1.15,2013-02-08 07:59:00,
2013-02-08 03:03:00,28.0,25.2,30.14,ESE,117,3.0,12.0,89,0.00,,,0.00,Wunderground v.1.15,2013-02-08 08:03:00,
2013-02-08 03:04:00,27.9,25.1,30.14,ESE,121,3.0,12.0,89,0.00,,,0.00,Wunderground v.1.15,2013-02-08 08:04:00,
2013-02-08 03:05:00,27.9,25.1,30.13,East,96,4.0,12.0,89,0.00,,,0.00,Wunderground v.1.15,2013-02-08 08:05:00,
2013-02-08 03:10:00,27.9,25.1,30.13,ESE,107,3.0,3.0,89,0.00,,,0.00,Wunderground v.1.15,2013-02-08 08:10:00,
2013-02-08 03:11:00,27.9,25.1,30.13,ESE,107,3.0,3.0,89,0.00,,,0.00,Wunderground v.1.15,2013-02-08 08:11:00,
2013-02-08 03:12:00,27.9,25.1,30.13,East,80,3.0,3.0,89,0.00,,,0.00,Wunderground v.1.15,2013-02-08 08:12:00,
2013-02-08 03:15:00,27.9,25.1,30.13,ESE,105,3.0,8.0,89,0.00,,,0.00,Wunderground v.1.15,2013-02-08 08:15:00,
2013-02-08 03:17:00,27.9,25.1,30.13,SE,132,3.0,8.0,89,0.00,,,0.00,Wunderground v.1.15,2013-02-08 08:17:00,
2013-02-08 03:18:00,27.9,25.1,30.13,East,79,3.0,8.0,89,0.00,,,0.00,Wunderground v.1.15,2013-02-08 08:18:00,
2013-02-08 03:19:00,28.0,25.2,30.13,East,96,3.0,8.0,89,0.00,,,0.00,Wunderground v.1.15,2013-02-08 08:19:00,
2013-02-08 03:22:00,28.0,25.2,30.13,ESE,107,2.0,8.0,89,0.00,,,0.00,Wunderground v.1.15,2013-02-08 08:22:00,
2013-02-08 03:23:00,28.0,25.2,30.13,ESE,111,2.0,8.0,89,0.00,,,0.00,Wunderground v.1.15,2013-02-08 08:23:00,
2013-02-08 03:26:00,28.0,25.2,30.13,SSE,158,2.0,8.0,89,0.00,,,0.00,Wunderground v.1.15,2013-02-08 08:26:00,
2013-02-08 03:28:00,28.0,25.2,30.13,East,82,3.0,8.0,89,0.00,,,0.00,Wunderground v.1.15,2013-02-08 08:28:00,
2013-02-08 03:29:00,28.0,25.2,30.13,East,90,3.0,8.0,89,0.00,,,0.00,Wunderground v.1.15,2013-02-08 08:29:00,
2013-02-08 03:33:00,27.9,25.1,30.13,NE,55,3.0,14.0,89,0.00,,,0.00,Wunderground v.1.15,2013-02-08 08:33:00,
2013-02-08 03:34:00,27.9,25.1,30.13,East,86,3.0,14.0,89,0.00,,,0.00,Wunderground v.1.15,2013-02-08 08:34:00,
2013-02-08 03:36:00,27.9,25.1,30.13,East,83,3.0,14.0,89,0.00,,,0.00,Wunderground v.1.15,2013-02-08 08:36:00,
2013-02-08 03:39:00,27.9,25.1,30.12,East,88,3.0,14.0,89,0.00,,,0.00,Wunderground v.1.15,2013-02-08 08:39:00,
2013-02-08 03:43:00,27.9,25.1,30.12,ENE,78,2.0,3.0,89,0.00,,,0.00,Wunderground v.1.15,2013-02-08 08:43:00,
2013-02-08 03:45:00,27.9,25.1,30.12,South,170,2.0,3.0,89,0.00,,,0.00,Wunderground v.1.15,2013-02-08 08:45:00,
2013-02-08 03:46:00,27.9,25.1,30.12,South,170,1.0,3.0,89,0.00,,,0.00,Wunderground v.1.15,2013-02-08 08:46:00,
2013-02-08 03:50:00,27.9,25.1,30.12,ENE,71,1.0,1.0,89,0.00,,,0.00,Wunderground v.1.15,2013-02-08 08:50:00,
2013-02-08 03:51:00,27.9,25.1,30.12,ENE,75,1.0,1.0,89,0.00,,,0.00,Wunderground v.1.15,2013-02-08 08:51:00,
2013-02-08 03:56:00,27.9,25.1,30.11,East,99,1.0,4.0,89,0.00,,,0.00,Wunderground v.1.15,2013-02-08 08:56:00,
2013-02-08 03:57:00,27.9,25.1,30.11,East,99,1.0,4.0,89,0.00,,,0.00,Wunderground v.1.15,2013-02-08 08:57:00,
2013-02-08 04:01:00,28.0,25.2,30.11,East,81,1.0,3.0,89,0.00,,,0.00,Wunderground v.1.15,2013-02-08 09:01:00,
2013-02-08 04:03:00,28.0,25.2,30.11,ESE,110,2.0,13.0,89,0.00,,,0.00,Wunderground v.1.15,2013-02-08 09:03:00,
2013-02-08 04:04:00,28.0,25.2,30.11,SSE,167,2.0,13.0,89,0.00,,,0.00,Wunderground v.1.15,2013-02-08 09:04:00,
2013-02-08 04:07:00,28.0,25.2,30.11,SE,125,3.0,13.0,89,0.00,,,0.00,Wunderground v.1.15,2013-02-08 09:07:00,
2013-02-08 04:09:00,28.0,25.2,30.11,ESE,119,3.0,13.0,89,0.00,,,0.00,Wunderground v.1.15,2013-02-08 09:09:00,
2013-02-08 04:12:00,28.1,25.5,30.11,SE,126,3.0,6.0,90,0.00,,,0.00,Wunderground v.1.15,2013-02-08 09:12:00,
2013-02-08 04:14:00,28.0,25.4,30.11,SE,136,3.0,6.0,90,0.00,,,0.00,Wunderground v.1.15,2013-02-08 09:14:00,
2013-02-08 04:15:00,28.0,25.4,30.11,SE,129,2.0,6.0,90,0.00,,,0.00,Wunderground v.1.15,2013-02-08 09:15:00,
2013-02-08 04:16:00,28.0,25.4,30.11,ENE,77,2.0,6.0,90,0.00,,,0.00,Wunderground v.1.15,2013-02-08 09:16:00,
2013-02-08 04:20:00,28.0,25.4,30.11,East,93,1.0,1.0,90,0.00,,,0.00,Wunderground v.1.15,2013-02-08 09:20:00,
2013-02-08 04:25:00,28.0,25.4,30.10,ESE,120,1.0,6.0,90,0.00,,,0.00,Wunderground v.1.15,2013-02-08 09:25:00,
2013-02-08 04:26:00,28.1,25.5,30.10,East,95,1.0,6.0,90,0.00,,,0.00,Wunderground v.1.15,2013-02-08 09:26:00,
2013-02-08 04:28:00,28.1,25.5,30.10,SE,141,1.0,6.0,90,0.00,,,0.00,Wunderground v.1.15,2013-02-08 09:28:00,
2013-02-08 04:29:00,28.1,25.5,30.10,SE,136,1.0,6.0,90,0.00,,,0.00,Wunderground v.1.15,2013-02-08 09:29:00,
2013-02-08 04:35:00,28.1,25.5,30.10,ESE,103,1.0,9.0,90,0.00,,,0.00,Wunderground v.1.15,2013-02-08 09:35:00,
2013-02-08 04:36:00,28.1,25.5,30.10,ESE,107,1.0,9.0,90,0.00,,,0.00,Wunderground v.1.15,2013-02-08 09:36:00,
2013-02-08 04:38:00,28.1,25.5,30.10,ESE,114,1.0,9.0,90,0.00,,,0.00,Wunderground v.1.15,2013-02-08 09:38:00,
2013-02-08 04:40:00,28.1,25.5,30.10,East,81,1.0,2.0,90,0.00,,,0.00,Wunderground v.1.15,2013-02-08 09:40:00,
2013-02-08 04:44:00,28.0,25.7,30.09,East,90,1.0,7.0,91,0.00,,,0.00,Wunderground v.1.15,2013-02-08 09:44:00,
2013-02-08 04:45:00,28.0,25.7,30.09,East,96,2.0,7.0,91,0.00,,,0.00,Wunderground v.1.15,2013-02-08 09:45:00,
2013-02-08 04:46:00,28.0,25.7,30.09,ESE,107,2.0,7.0,91,0.00,,,0.00,Wunderground v.1.15,2013-02-08 09:46:00,
2013-02-08 04:51:00,27.8,25.5,30.09,ESE,105,3.0,4.0,91,0.00,,,0.00,Wunderground v.1.15,2013-02-08 09:51:00,
2013-02-08 04:53:00,27.8,25.5,30.09,ESE,103,3.0,4.0,91,0.00,,,0.00,Wunderground v.1.15,2013-02-08 09:53:00,
2013-02-08 04:54:00,27.8,25.5,30.09,East,99,3.0,4.0,91,0.00,,,0.00,Wunderground v.1.15,2013-02-08 09:54:00,
2013-02-08 04:56:00,27.8,25.5,30.09,SE,138,3.0,4.0,91,0.00,,,0.00,Wunderground v.1.15,2013-02-08 09:56:00,
2013-02-08 05:00:00,27.7,25.7,30.09,East,84,2.0,2.0,92,0.00,,,0.00,Wunderground v.1.15,2013-02-08 10:00:00,
2013-02-08 05:01:00,27.7,25.4,30.09,ENE,67,2.0,9.0,91,0.00,,,0.00,Wunderground v.1.15,2013-02-08 10:01:00,
2013-02-08 05:04:00,27.7,25.7,30.09,ESE,103,1.0,9.0,92,0.00,,,0.00,Wunderground v.1.15,2013-02-08 10:04:00,
2013-02-08 05:09:00,27.6,25.6,30.09,ESE,113,1.0,9.0,92,0.00,,,0.00,Wunderground v.1.15,2013-02-08 10:09:00,
2013-02-08 05:10:00,27.5,25.5,30.09,NE,51,1.0,1.0,92,0.00,,,0.00,Wunderground v.1.15,2013-02-08 10:10:00,
2013-02-08 05:11:00,27.5,25.5,30.09,ENE,75,0.0,1.0,92,0.00,,,0.00,Wunderground v.1.15,2013-02-08 10:11:00,
2013-02-08 05:14:00,27.5,25.5,30.08,East,91,1.0,1.0,92,0.00,,,0.00,Wunderground v.1.15,2013-02-08 10:14:00,
2013-02-08 05:16:00,27.5,25.5,30.08,ESE,108,1.0,1.0,92,0.00,,,0.00,Wunderground v.1.15,2013-02-08 10:16:00,
2013-02-08 05:18:00,27.4,25.4,30.08,ESE,120,1.0,2.0,92,0.00,,,0.00,Wunderground v.1.15,2013-02-08 10:18:00,
2013-02-08 05:19:00,27.4,25.4,30.08,ESE,120,1.0,2.0,92,0.00,,,0.00,Wunderground v.1.15,2013-02-08 10:19:00,
2013-02-08 05:23:00,27.5,25.5,30.08,ESE,105,1.0,4.0,92,0.00,,,0.00,Wunderground v.1.15,2013-02-08 10:23:00,
2013-02-08 05:24:00,27.5,25.5,30.08,ESE,111,1.0,4.0,92,0.00,,,0.00,Wunderground v.1.15,2013-02-08 10:24:00,
2013-02-08 05:25:00,27.5,25.5,30.08,ESE,123,1.0,4.0,92,0.00,,,0.00,Wunderground v.1.15,2013-02-08 10:25:00,
2013-02-08 05:29:00,27.5,25.5,30.08,ESE,111,1.0,4.0,92,0.00,,,0.00,Wunderground v.1.15,2013-02-08 10:29:00,
2013-02-08 05:30:00,27.5,25.5,30.08,East,94,1.0,2.0,92,0.00,,,0.00,Wunderground v.1.15,2013-02-08 10:30:00,
2013-02-08 05:32:00,27.5,25.7,30.08,East,79,1.0,9.0,93,0.00,,,0.00,Wunderground v.1.15,2013-02-08 10:32:00,
2013-02-08 05:34:00,27.6,25.8,30.08,East,82,1.0,9.0,93,0.00,,,0.00,Wunderground v.1.15,2013-02-08 10:34:00,
2013-02-08 05:36:00,27.7,25.9,30.08,ESE,111,1.0,9.0,93,0.00,,,0.00,Wunderground v.1.15,2013-02-08 10:36:00,
2013-02-08 05:39:00,28.0,26.2,30.08,ESE,110,1.0,9.0,93,0.00,,,0.00,Wunderground v.1.15,2013-02-08 10:39:00,
2013-02-08 05:40:00,28.1,26.3,30.08,ESE,109,1.0,1.0,93,0.00,,,0.00,Wunderground v.1.15,2013-02-08 10:40:00,
2013-02-08 05:42:00,28.3,26.5,30.08,East,88,1.0,1.0,93,0.00,,,0.00,Wunderground v.1.15,2013-02-08 10:42:00,
2013-02-08 05:45:00,28.3,26.5,30.07,ESE,110,1.0,4.0,93,0.00,,,0.00,Wunderground v.1.15,2013-02-08 10:45:00,
2013-02-08 05:46:00,28.3,26.5,30.07,ESE,118,1.0,4.0,93,0.00,,,0.00,Wunderground v.1.15,2013-02-08 10:46:00,
2013-02-08 05:52:00,28.2,26.4,30.07,East,99,1.0,4.0,93,0.00,,,0.00,Wunderground v.1.15,2013-02-08 10:52:00,
2013-02-08 05:53:00,28.2,26.4,30.07,ESE,103,1.0,4.0,93,0.00,,,0.00,Wunderground v.1.15,2013-02-08 10:53:00,
2013-02-08 05:56:00,28.2,26.4,30.07,ESE,104,2.0,4.0,93,0.00,,,0.00,Wunderground v.1.15,2013-02-08 10:56:00,
2013-02-08 05:58:00,28.3,26.5,30.07,ESE,121,1.0,4.0,93,0.00,,,0.00,Wunderground v.1.15,2013-02-08 10:58:00,
2013-02-08 05:59:00,28.4,26.6,30.07,ESE,121,1.0,4.0,93,0.00,,,0.00,Wunderground v.1.15,2013-02-08 10:59:00,
2013-02-08 06:02:00,28.5,27.0,30.07,East,101,1.0,6.0,94,0.00,,,0.00,Wunderground v.1.15,2013-02-08 11:02:00,
2013-02-08 06:03:00,28.5,27.0,30.07,East,100,1.0,6.0,94,0.00,,,0.00,Wunderground v.1.15,2013-02-08 11:03:00,
2013-02-08 06:05:00,28.6,27.1,30.07,ESE,102,0.0,6.0,94,0.00,,,0.00,Wunderground v.1.15,2013-02-08 11:05:00,
2013-02-08 06:07:00,28.7,27.2,30.07,ESE,122,0.0,6.0,94,0.00,,,0.00,Wunderground v.1.15,2013-02-08 11:07:00,
2013-02-08 06:08:00,28.8,27.3,30.07,ESE,122,0.0,6.0,94,0.00,,,0.00,Wunderground v.1.15,2013-02-08 11:08:00,
2013-02-08 06:09:00,28.8,27.3,30.07,ESE,119,0.0,6.0,94,0.00,,,0.00,Wunderground v.1.15,2013-02-08 11:09:00,
2013-02-08 06:12:00,28.9,27.4,30.07,East,85,0.0,0.0,94,0.00,,,0.00,Wunderground v.1.15,2013-02-08 11:12:00,
2013-02-08 06:15:00,28.9,27.4,30.07,ESE,113,0.0,1.0,94,0.00,,,0.00,Wunderground v.1.15,2013-02-08 11:15:00,
2013-02-08 06:20:00,28.8,27.3,30.06,East,96,0.0,1.0,94,0.00,,,0.00,Wunderground v.1.15,2013-02-08 11:20:00,
2013-02-08 06:21:00,28.8,27.3,30.06,ESE,113,0.0,1.0,94,0.00,,,0.00,Wunderground v.1.15,2013-02-08 11:21:00,
2013-02-08 06:22:00,28.8,27.3,30.06,ESE,102,0.0,4.0,94,0.00,,,0.00,Wunderground v.1.15,2013-02-08 11:22:00,
2013-02-08 06:25:00,28.8,27.3,30.06,East,91,1.0,4.0,94,0.00,,,0.00,Wunderground v.1.15,2013-02-08 11:25:00,
2013-02-08 06:28:00,28.8,27.3,30.06,East,97,1.0,4.0,94,0.00,,,0.00,Wunderground v.1.15,2013-02-08 11:28:00,
2013-02-08 06:31:00,28.8,27.3,30.06,ESE,103,1.0,7.0,94,0.00,,,0.00,Wunderground v.1.15,2013-02-08 11:31:00,
2013-02-08 06:33:00,28.8,27.3,30.06,East,91,0.0,7.0,94,0.00,,,0.00,Wunderground v.1.15,2013-02-08 11:33:00,
2013-02-08 06:37:00,28.9,27.4,30.06,SE,128,1.0,7.0,94,0.00,,,0.00,Wunderground v.1.15,2013-02-08 11:37:00,
2013-02-08 06:39:00,28.9,27.4,30.06,East,93,2.0,7.0,94,0.00,,,0.00,Wunderground v.1.15,2013-02-08 11:39:00,
2013-02-08 06:40:00,28.9,27.4,30.06,East,89,2.0,2.0,94,0.00,,,0.00,Wunderground v.1.15,2013-02-08 11:40:00,
2013-02-08 06:41:00,29.0,27.5,30.06,ENE,68,2.0,2.0,94,0.00,,,0.00,Wunderground v.1.15,2013-02-08 11:41:00,
2013-02-08 06:45:00,29.0,27.5,30.05,ESE,104,2.0,5.0,94,0.00,,,0.00,Wunderground v.1.15,2013-02-08 11:45:00,
2013-02-08 06:46:00,29.0,27.5,30.05,East,91,2.0,5.0,94,0.00,,,0.00,Wunderground v.1.15,2013-02-08 11:46:00,
2013-02-08 06:49:00,29.1,27.6,30.05,ESE,109,2.0,5.0,94,0.00,,,0.00,Wunderground v.1.15,2013-02-08 11:49:00,
2013-02-08 06:51:00,29.2,27.7,30.05,ESE,105,3.0,5.0,94,0.00,,,0.00,Wunderground v.1.15,2013-02-08 11:51:00,
2013-02-08 06:52:00,29.2,27.7,30.05,ESE,107,3.0,5.0,94,0.00,,,0.00,Wunderground v.1.15,2013-02-08 11:52:00,
2013-02-08 06:53:00,29.2,27.7,30.04,ESE,118,4.0,5.0,94,0.00,,,0.00,Wunderground v.1.15,2013-02-08 11:53:00,
2013-02-08 06:57:00,29.3,28.0,30.04,ESE,105,3.0,5.0,95,0.00,,,0.00,Wunderground v.1.15,2013-02-08 11:57:00,
2013-02-08 06:58:00,29.3,27.8,30.04,ESE,104,3.0,5.0,94,0.00,,,0.00,Wunderground v.1.15,2013-02-08 11:58:00,
2013-02-08 07:00:00,29.4,27.9,30.04,ESE,104,3.0,4.0,94,0.00,,,0.00,Wunderground v.1.15,2013-02-08 12:00:00,
2013-02-08 07:01:00,29.4,27.9,30.04,ESE,107,3.0,6.0,94,0.00,,,0.00,Wunderground v.1.15,2013-02-08 12:01:00,
2013-02-08 07:04:00,29.6,28.3,30.04,ESE,102,2.0,6.0,95,0.00,,,0.00,Wunderground v.1.15,2013-02-08 12:04:00,
2013-02-08 07:06:00,29.6,28.3,30.04,ESE,115,2.0,6.0,95,0.00,,,0.00,Wunderground v.1.15,2013-02-08 12:06:00,
2013-02-08 07:10:00,29.7,28.4,30.04,ESE,111,1.0,5.0,95,0.00,,,0.00,Wunderground v.1.15,2013-02-08 12:10:00,
2013-02-08 07:13:00,29.9,28.6,30.03,East,96,1.0,5.0,95,0.00,,,0.00,Wunderground v.1.15,2013-02-08 12:13:00,
2013-02-08 07:15:00,29.9,28.6,30.03,ENE,75,1.0,5.0,95,0.00,,,0.00,Wunderground v.1.15,2013-02-08 12:15:00,
2013-02-08 07:16:00,29.9,28.6,30.04,SE,126,1.0,5.0,95,0.00,,,0.00,Wunderground v.1.15,2013-02-08 12:16:00,
2013-02-08 07:20:00,30.1,28.8,30.04,East,98,1.0,1.0,95,0.00,,,0.00,Wunderground v.1.15,2013-02-08 12:20:00,
2013-02-08 07:21:00,30.1,28.8,30.03,ESE,108,1.0,1.0,95,0.00,,,0.00,Wunderground v.1.15,2013-02-08 12:21:00,
2013-02-08 07:26:00,30.1,28.8,30.03,ESE,106,1.0,1.0,95,0.00,,,0.00,Wunderground v.1.15,2013-02-08 12:26:00,
2013-02-08 07:27:00,30.1,28.8,30.03,ESE,103,1.0,1.0,95,0.00,,,0.00,Wunderground v.1.15,2013-02-08 12:27:00,
2013-02-08 07:28:00,30.1,28.8,30.03,East,88,0.0,1.0,95,0.00,,,0.00,Wunderground v.1.15,2013-02-08 12:28:00,
2013-02-08 07:34:00,30.0,28.7,30.03,ENE,60,0.0,6.0,95,0.00,,,0.00,Wunderground v.1.15,2013-02-08 12:34:00,
2013-02-08 07:35:00,30.0,28.7,30.03,SE,128,1.0,6.0,95,0.00,,,0.00,Wunderground v.1.15,2013-02-08 12:35:00,
2013-02-08 07:40:00,29.9,28.6,30.02,East,96,1.0,1.0,95,0.00,,,0.00,Wunderground v.1.15,2013-02-08 12:40:00,
2013-02-08 07:41:00,29.8,28.5,30.02,East,99,1.0,1.0,95,0.00,,,0.00,Wunderground v.1.15,2013-02-08 12:41:00,
2013-02-08 07:42:00,29.8,28.5,30.02,SE,124,1.0,2.0,95,0.00,,,0.00,Wunderground v.1.15,2013-02-08 12:42:00,
2013-02-08 07:46:00,29.8,28.5,30.02,ESE,103,0.0,2.0,95,0.00,,,0.00,Wunderground v.1.15,2013-02-08 12:46:00,
2013-02-08 07:48:00,29.8,28.5,30.02,SE,134,0.0,2.0,95,0.00,,,0.00,Wunderground v.1.15,2013-02-08 12:48:00,
2013-02-08 07:50:00,29.8,28.5,30.02,SSE,147,1.0,2.0,95,0.00,,,0.00,Wunderground v.1.15,2013-02-08 12:50:00,
2013-02-08 07:53:00,29.8,28.5,30.02,ESE,109,1.0,5.0,95,0.00,,,0.00,Wunderground v.1.15,2013-02-08 12:53:00,
2013-02-08 07:55:00,29.9,28.6,30.02,East,99,1.0,5.0,95,0.00,,,0.00,Wunderground v.1.15,2013-02-08 12:55:00,
2013-02-08 07:56:00,29.9,28.6,30.02,East,100,1.0,5.0,95,0.00,,,0.00,Wunderground v.1.15,2013-02-08 12:56:00,
2013-02-08 07:58:00,29.9,28.6,30.02,ESE,110,1.0,5.0,95,0.00,,,0.00,Wunderground v.1.15,2013-02-08 12:58:00,
2013-02-08 08:01:00,29.9,28.6,30.02,NE,34,0.0,7.0,95,0.00,,,0.00,Wunderground v.1.15,2013-02-08 13:01:00,
2013-02-08 08:03:00,29.9,28.6,30.01,ENE,74,0.0,7.0,95,0.00,,,0.00,Wunderground v.1.15,2013-02-08 13:03:00,
2013-02-08 08:04:00,29.9,28.6,30.01,ENE,75,0.0,7.0,95,0.00,,,0.00,Wunderground v.1.15,2013-02-08 13:04:00,
2013-02-08 08:06:00,29.9,28.6,30.01,ENE,75,0.0,7.0,95,0.00,,,0.00,Wunderground v.1.15,2013-02-08 13:06:00,
2013-02-08 08:09:00,30.0,28.7,30.01,East,94,0.0,7.0,95,0.00,,,0.00,Wunderground v.1.15,2013-02-08 13:09:00,
2013-02-08 08:10:00,30.0,28.7,30.01,ENE,68,0.0,1.0,95,0.00,,,0.00,Wunderground v.1.15,2013-02-08 13:10:00,
2013-02-08 08:11:00,30.0,28.7,30.01,ENE,75,0.0,1.0,95,0.00,,,0.00,Wunderground v.1.15,2013-02-08 13:11:00,
2013-02-08 08:14:00,30.0,28.7,30.01,East,94,0.0,4.0,95,0.00,,,0.00,Wunderground v.1.15,2013-02-08 13:14:00,
2013-02-08 08:15:00,30.0,28.7,30.01,ESE,115,0.0,6.0,95,0.00,,,0.00,Wunderground v.1.15,2013-02-08 13:15:00,
2013-02-08 08:16:00,30.1,28.8,30.01,ESE,118,1.0,6.0,95,0.00,,,0.00,Wunderground v.1.15,2013-02-08 13:16:00,
2013-02-08 08:17:00,30.1,28.8,30.01,ESE,111,1.0,6.0,95,0.00,,,0.00,Wunderground v.1.15,2013-02-08 13:17:00,
2013-02-08 08:22:00,30.1,28.8,30.01,ESE,105,1.0,1.0,95,0.00,,,0.00,Wunderground v.1.15,2013-02-08 13:22:00,
2013-02-08 08:23:00,30.1,28.8,30.01,East,101,1.0,1.0,95,0.00,,,0.00,Wunderground v.1.15,2013-02-08 13:23:00,
2013-02-08 08:25:00,30.1,28.8,30.01,East,91,1.0,1.0,95,0.00,,,0.00,Wunderground v.1.15,2013-02-08 13:25:00,
2013-02-08 08:28:00,30.1,28.8,30.00,East,86,0.0,1.0,95,0.00,,,0.00,Wunderground v.1.15,2013-02-08 13:28:00,
2013-02-08 08:29:00,30.1,28.8,30.00,ESE,102,0.0,4.0,95,0.00,,,0.00,Wunderground v.1.15,2013-02-08 13:29:00,
2013-02-08 08:33:00,30.1,28.8,30.01,ESE,102,1.0,7.0,95,0.00,,,0.00,Wunderground v.1.15,2013-02-08 13:33:00,
2013-02-08 08:34:00,30.1,28.8,30.01,ESE,102,1.0,7.0,95,0.00,,,0.00,Wunderground v.1.15,2013-02-08 13:34:00,
2013-02-08 08:35:00,30.1,28.8,30.01,ESE,102,1.0,7.0,95,0.00,,,0.00,Wunderground v.1.15,2013-02-08 13:35:00,
2013-02-08 08:37:00,30.1,28.8,30.01,ESE,103,0.0,7.0,95,0.00,,,0.00,Wunderground v.1.15,2013-02-08 13:37:00,
2013-02-08 08:41:00,30.1,28.8,30.00,ESE,103,0.0,0.0,95,0.00,,,0.00,Wunderground v.1.15,2013-02-08 13:41:00,
2013-02-08 08:43:00,30.1,28.8,30.00,ESE,103,0.0,0.0,95,0.00,,,0.00,Wunderground v.1.15,2013-02-08 13:43:00,
2013-02-08 08:45:00,30.1,28.8,30.00,ESE,108,0.0,1.0,95,0.00,,,0.00,Wunderground v.1.15,2013-02-08 13:45:00,
2013-02-08 08:47:00,30.2,28.9,30.00,ESE,107,0.0,1.0,95,0.00,,,0.00,Wunderground v.1.15,2013-02-08 13:47:00,
2013-02-08 08:51:00,30.3,29.0,30.00,East,101,0.0,1.0,95,0.00,,,0.00,Wunderground v.1.15,2013-02-08 13:51:00,
2013-02-08 08:52:00,30.3,29.0,29.99,East,101,0.0,1.0,95,0.00,,,0.00,Wunderground v.1.15,2013-02-08 13:52:00,
2013-02-08 08:53:00,30.3,29.0,29.99,East,101,0.0,1.0,95,0.00,,,0.00,Wunderground v.1.15,2013-02-08 13:53:00,
2013-02-08 08:54:00,30.3,29.0,29.99,East,101,0.0,1.0,95,0.00,,,0.00,Wunderground v.1.15,2013-02-08 13:54:00,
2013-02-08 08:56:00,30.4,29.1,29.99,East,94,0.0,1.0,95,0.00,,,0.00,Wunderground v.1.15,2013-02-08 13:56:00,
2013-02-08 09:00:00,30.4,29.1,29.99,ESE,109,0.0,4.0,95,0.00,,,0.00,Wunderground v.1.15,2013-02-08 14:00:00,
2013-02-08 09:01:00,30.5,29.2,29.99,ESE,109,0.0,8.0,95,0.00,,,0.00,Wunderground v.1.15,2013-02-08 14:01:00,
2013-02-08 09:02:00,30.5,29.2,29.99,ESE,109,0.0,8.0,95,0.00,,,0.00,Wunderground v.1.15,2013-02-08 14:02:00,
2013-02-08 09:03:00,30.5,29.2,29.99,SE,136,0.0,8.0,95,0.00,,,0.00,Wunderground v.1.15,2013-02-08 14:03:00,
2013-02-08 09:06:00,30.5,29.2,29.99,ESE,109,0.0,8.0,95,0.00,,,0.00,Wunderground v.1.15,2013-02-08 14:06:00,
2013-02-08 09:08:00,30.6,29.3,29.99,East,86,0.0,8.0,95,0.00,,,0.00,Wunderground v.1.15,2013-02-08 14:08:00,
2013-02-08 09:09:00,30.6,29.3,29.98,East,91,1.0,8.0,95,0.00,,,0.00,Wunderground v.1.15,2013-02-08 14:09:00,
2013-02-08 09:13:00,30.8,29.8,29.98,East,99,1.0,2.0,96,0.00,,,0.00,Wunderground v.1.15,2013-02-08 14:13:00,
2013-02-08 09:14:00,30.8,29.8,29.98,East,99,1.0,2.0,96,0.00,,,0.00,Wunderground v.1.15,2013-02-08 14:14:00,
2013-02-08 09:16:00,30.8,29.8,29.98,ENE,61,0.0,2.0,96,0.00,,,0.00,Wunderground v.1.15,2013-02-08 14:16:00,
2013-02-08 09:19:00,30.9,29.9,29.98,East,92,0.0,2.0,96,0.00,,,0.00,Wunderground v.1.15,2013-02-08 14:19:00,
2013-02-08 09:22:00,31.0,30.0,29.97,ESE,114,0.0,0.0,96,0.00,,,0.00,Wunderground v.1.15,2013-02-08 14:22:00,
2013-02-08 09:23:00,31.0,30.0,29.97,ESE,114,0.0,0.0,96,0.00,,,0.00,Wunderground v.1.15,2013-02-08 14:23:00,
2013-02-08 09:25:00,31.0,30.0,29.97,ENE,67,0.0,2.0,96,0.00,,,0.00,Wunderground v.1.15,2013-02-08 14:25:00,
2013-02-08 09:28:00,31.1,30.1,29.97,ENE,77,0.0,2.0,96,0.00,,,0.00,Wunderground v.1.15,2013-02-08 14:28:00,
2013-02-08 09:29:00,31.2,30.2,29.97,ENE,76,0.0,2.0,96,0.00,,,0.00,Wunderground v.1.15,2013-02-08 14:29:00,
2013-02-08 09:31:00,31.2,30.2,29.97,ENE,75,0.0,4.0,96,0.00,,,0.00,Wunderground v.1.15,2013-02-08 14:31:00,
2013-02-08 09:34:00,31.2,30.2,29.96,NNE,31,0.0,4.0,96,0.00,,,0.00,Wunderground v.1.15,2013-02-08 14:34:00,
2013-02-08 09:37:00,31.3,30.3,29.96,East,85,0.0,4.0,96,0.00,,,0.00,Wunderground v.1.15,2013-02-08 14:37:00,
2013-02-08 09:39:00,31.4,30.4,29.96,East,84,0.0,4.0,96,0.00,,,0.00,Wunderground v.1.15,2013-02-08 14:39:00,
2013-02-08 09:41:00,31.4,30.4,29.96,East,84,0.0,0.0,96,0.00,,,0.00,Wunderground v.1.15,2013-02-08 14:41:00,
2013-02-08 09:42:00,31.4,30.4,29.96,East,84,0.0,0.0,96,0.00,,,0.00,Wunderground v.1.15,2013-02-08 14:42:00,
2013-02-08 09:46:00,31.5,30.5,29.96,East,95,0.0,2.0,96,0.00,,,0.00,Wunderground v.1.15,2013-02-08 14:46:00,
2013-02-08 09:47:00,31.5,30.5,29.95,East,94,0.0,2.0,96,0.00,,,0.00,Wunderground v.1.15,2013-02-08 14:47:00,
2013-02-08 09:49:00,31.5,30.5,29.95,East,94,0.0,2.0,96,0.00,,,0.00,Wunderground v.1.15,2013-02-08 14:49:00,
2013-02-08 09:51:00,31.5,30.5,29.95,East,94,0.0,0.0,96,0.00,,,0.00,Wunderground v.1.15,2013-02-08 14:51:00,
2013-02-08 09:54:00,31.6,30.6,29.95,East,94,0.0,0.0,96,0.00,,,0.00,Wunderground v.1.15,2013-02-08 14:54:00,
2013-02-08 09:55:00,31.6,30.6,29.95,East,94,0.0,0.0,96,0.00,,,0.00,Wunderground v.1.15,2013-02-08 14:55:00,
2013-02-08 09:57:00,31.7,30.7,29.95,NE,56,0.0,0.0,96,0.00,,,0.00,Wunderground v.1.15,2013-02-08 14:57:00,
2013-02-08 10:00:00,31.7,30.7,29.95,NE,50,0.0,0.0,96,0.00,,,0.00,Wunderground v.1.15,2013-02-08 15:00:00,
2013-02-08 10:01:00,31.7,30.7,29.95,NE,54,0.0,1.0,96,0.00,,,0.00,Wunderground v.1.15,2013-02-08 15:01:00,
2013-02-08 10:05:00,31.8,30.8,29.95,NE,50,0.0,5.0,96,0.00,,,0.00,Wunderground v.1.15,2013-02-08 15:05:00,
2013-02-08 10:06:00,31.9,30.9,29.95,NE,50,0.0,5.0,96,0.00,,,0.00,Wunderground v.1.15,2013-02-08 15:06:00,
2013-02-08 10:08:00,31.9,30.9,29.95,NE,51,0.0,5.0,96,0.00,,,0.00,Wunderground v.1.15,2013-02-08 15:08:00,
2013-02-08 10:11:00,32.0,31.0,29.94,East,83,0.0,2.0,96,0.00,,,0.00,Wunderground v.1.15,2013-02-08 15:11:00,
2013-02-08 10:14:00,32.0,31.0,29.94,East,86,0.0,2.0,96,0.00,,,0.00,Wunderground v.1.15,2013-02-08 15:14:00,
2013-02-08 10:15:00,32.0,31.0,29.94,NE,55,0.0,2.0,96,0.00,,,0.00,Wunderground v.1.15,2013-02-08 15:15:00,
2013-02-08 10:16:00,32.1,31.1,29.94,NE,55,0.0,2.0,96,0.00,,,0.00,Wunderground v.1.15,2013-02-08 15:16:00,
2013-02-08 10:20:00,32.0,31.0,29.94,ENE,74,0.0,0.0,96,0.00,,,0.00,Wunderground v.1.15,2013-02-08 15:20:00,
2013-02-08 10:21:00,32.1,31.1,29.94,ENE,74,0.0,0.0,96,0.00,,,0.00,Wunderground v.1.15,2013-02-08 15:21:00,
2013-02-08 10:23:00,32.1,31.1,29.94,ENE,74,0.0,0.0,96,0.00,,,0.00,Wunderground v.1.15,2013-02-08 15:23:00,
2013-02-08 10:26:00,32.1,31.1,29.94,ENE,69,0.0,0.0,96,0.00,,,0.00,Wunderground v.1.15,2013-02-08 15:26:00,
2013-02-08 10:28:00,32.1,31.1,29.94,ENE,69,0.0,0.0,96,0.00,,,0.00,Wunderground v.1.15,2013-02-08 15:28:00,
2013-02-08 10:29:00,32.2,31.2,29.94,ENE,69,0.0,0.0,96,0.00,,,0.00,Wunderground v.1.15,2013-02-08 15:29:00,
2013-02-08 10:33:00,32.3,31.3,29.93,NE,53,0.0,4.0,96,0.00,,,0.00,Wunderground v.1.15,2013-02-08 15:33:00,
2013-02-08 10:35:00,32.3,31.3,29.93,East,84,0.0,4.0,96,0.00,,,0.00,Wunderground v.1.15,2013-02-08 15:35:00,
2013-02-08 10:36:00,32.3,31.3,29.93,NNW,348,0.0,4.0,96,0.00,,,0.00,Wunderground v.1.15,2013-02-08 15:36:00,
2013-02-08 10:37:00,32.3,31.3,29.93,North,350,0.0,4.0,96,0.00,,,0.00,Wunderground v.1.15,2013-02-08 15:37:00,
2013-02-08 10:40:00,32.4,31.4,29.93,NE,42,0.0,0.0,96,0.00,,,0.00,Wunderground v.1.15,2013-02-08 15:40:00,
2013-02-08 10:41:00,32.4,31.4,29.93,ESE,115,0.0,2.0,96,0.00,,,0.00,Wunderground v.1.15,2013-02-08 15:41:00,
2013-02-08 10:43:00,32.3,31.3,29.93,ENE,60,0.0,2.0,96,0.00,,,0.00,Wunderground v.1.15,2013-02-08 15:43:00,
2013-02-08 10:47:00,32.3,31.3,29.93,East,98,0.0,5.0,96,0.00,,,0.00,Wunderground v.1.15,2013-02-08 15:47:00,
2013-02-08 10:48:00,32.3,31.3,29.93,East,98,0.0,5.0,96,0.00,,,0.00,Wunderground v.1.15,2013-02-08 15:48:00,
2013-02-08 10:49:00,32.3,31.3,29.93,East,98,0.0,5.0,96,0.00,,,0.00,Wunderground v.1.15,2013-02-08 15:49:00,
2013-02-08 10:51:00,32.4,31.4,29.93,East,96,0.0,0.0,96,0.00,,,0.00,Wunderground v.1.15,2013-02-08 15:51:00,
2013-02-08 10:53:00,32.5,31.5,29.92,East,82,0.0,0.0,96,0.00,,,0.00,Wunderground v.1.15,2013-02-08 15:53:00,
2013-02-08 10:56:00,32.5,31.5,29.92,East,82,0.0,0.0,96,0.00,,,0.00,Wunderground v.1.15,2013-02-08 15:56:00,
2013-02-08 10:59:00,32.7,31.7,29.92,ESE,113,0.0,1.0,96,0.00,,,0.00,Wunderground v.1.15,2013-02-08 15:59:00,
2013-02-08 11:00:00,32.7,31.7,29.92,ESE,108,0.0,1.0,96,0.00,,,0.00,Wunderground v.1.15,2013-02-08 16:00:00,
2013-02-08 11:05:00,32.8,31.8,29.91,SSE,164,1.0,4.0,96,0.00,,,0.00,Wunderground v.1.15,2013-02-08 16:05:00,
2013-02-08 11:07:00,32.8,31.8,29.91,NNE,21,1.0,4.0,96,0.00,,,0.00,Wunderground v.1.15,2013-02-08 16:07:00,
2013-02-08 11:11:00,32.9,31.9,29.90,East,79,0.0,0.0,96,0.00,,,0.00,Wunderground v.1.15,2013-02-08 16:11:00,
2013-02-08 11:13:00,33.0,32.0,29.90,NE,50,0.0,0.0,96,0.00,,,0.00,Wunderground v.1.15,2013-02-08 16:13:00,
2013-02-08 11:15:00,33.0,32.0,29.90,ENE,63,0.0,0.0,96,0.00,,,0.00,Wunderground v.1.15,2013-02-08 16:15:00,
2013-02-08 11:16:00,33.0,32.0,29.90,ENE,63,0.0,0.0,96,0.00,,,0.00,Wunderground v.1.15,2013-02-08 16:16:00,
2013-02-08 11:18:00,33.1,32.1,29.90,SE,129,0.0,1.0,96,0.00,,,0.00,Wunderground v.1.15,2013-02-08 16:18:00,
2013-02-08 11:20:00,33.2,32.2,29.90,SSW,213,0.0,0.0,96,0.00,,,0.00,Wunderground v.1.15,2013-02-08 16:20:00,
2013-02-08 11:21:00,33.2,32.2,29.90,SSW,213,0.0,0.0,96,0.00,,,0.00,Wunderground v.1.15,2013-02-08 16:21:00,
2013-02-08 11:26:00,33.3,32.3,29.90,North,360,0.0,0.0,96,0.00,,,0.00,Wunderground v.1.15,2013-02-08 16:26:00,
2013-02-08 11:27:00,33.3,32.3,29.90,North,5,0.0,0.0,96,0.00,,,0.00,Wunderground v.1.15,2013-02-08 16:27:00,
2013-02-08 11:28:00,33.3,32.3,29.90,North,360,0.0,0.0,96,0.00,,,0.00,Wunderground v.1.15,2013-02-08 16:28:00,
2013-02-08 11:29:00,33.4,32.4,29.90,North,360,0.0,0.0,96,0.00,,,0.00,Wunderground v.1.15,2013-02-08 16:29:00,
2013-02-08 11:31:00,33.4,32.4,29.90,NE,53,0.0,5.0,96,0.00,,,0.00,Wunderground v.1.15,2013-02-08 16:31:00,
2013-02-08 11:32:00,33.3,32.3,29.90,ENE,57,0.0,5.0,96,0.00,,,0.00,Wunderground v.1.15,2013-02-08 16:32:00,
2013-02-08 11:33:00,33.4,32.4,29.90,NE,56,0.0,5.0,96,0.00,,,0.00,Wunderground v.1.15,2013-02-08 16:33:00,
2013-02-08 11:35:00,33.4,32.4,29.90,ENE,57,0.0,5.0,96,0.00,,,0.00,Wunderground v.1.15,2013-02-08 16:35:00,
2013-02-08 11:38:00,33.5,32.5,29.90,NE,55,0.0,5.0,96,0.00,,,0.00,Wunderground v.1.15,2013-02-08 16:38:00,
2013-02-08 11:41:00,33.6,32.6,29.90,NNE,13,0.0,0.0,96,0.00,,,0.00,Wunderground v.1.15,2013-02-08 16:41:00,
2013-02-08 11:43:00,33.7,32.7,29.89,NNE,15,0.0,0.0,96,0.00,,,0.00,Wunderground v.1.15,2013-02-08 16:43:00,
2013-02-08 11:47:00,33.8,32.8,29.89,NW,314,0.0,1.0,96,0.00,,,0.00,Wunderground v.1.15,2013-02-08 16:47:00,
2013-02-08 11:48:00,33.8,32.8,29.89,NNE,25,0.0,1.0,96,0.00,,,0.00,Wunderground v.1.15,2013-02-08 16:48:00,
2013-02-08 11:51:00,33.9,32.9,29.89,NNE,22,0.0,0.0,96,0.00,,,0.00,Wunderground v.1.15,2013-02-08 16:51:00,
2013-02-08 11:52:00,33.9,32.9,29.89,NNE,22,0.0,0.0,96,0.00,,,0.00,Wunderground v.1.15,2013-02-08 16:52:00,
2013-02-08 11:56:00,33.9,32.9,29.89,East,83,0.0,0.0,96,0.00,,,0.00,Wunderground v.1.15,2013-02-08 16:56:00,
2013-02-08 11:57:00,33.8,32.8,29.89,East,83,0.0,0.0,96,0.00,,,0.00,Wunderground v.1.15,2013-02-08 16:57:00,
2013-02-08 11:58:00,33.8,32.8,29.88,ESE,115,0.0,4.0,96,0.00,,,0.00,Wunderground v.1.15,2013-02-08 16:58:00,
2013-02-08 12:01:00,33.7,32.7,29.88,ESE,115,0.0,5.0,96,0.00,,,0.00,Wunderground v.1.15,2013-02-08 17:01:00,
2013-02-08 12:02:00,33.7,32.7,29.88,ESE,115,0.0,5.0,96,0.00,,,0.00,Wunderground v.1.15,2013-02-08 17:02:00,
2013-02-08 12:04:00,33.8,32.8,29.88,ESE,111,0.0,5.0,96,0.00,,,0.00,Wunderground v.1.15,2013-02-08 17:04:00,
2013-02-08 12:08:00,33.9,32.9,29.88,NW,304,0.0,5.0,96,0.00,,,0.00,Wunderground v.1.15,2013-02-08 17:08:00,
2013-02-08 12:09:00,33.9,32.9,29.88,NW,323,0.0,5.0,96,0.00,,,0.00,Wunderground v.1.15,2013-02-08 17:09:00,
2013-02-08 12:10:00,33.9,32.9,29.88,East,96,0.0,1.0,96,0.00,,,0.00,Wunderground v.1.15,2013-02-08 17:10:00,
2013-02-08 12:12:00,33.9,32.9,29.88,East,91,0.0,1.0,96,0.00,,,0.00,Wunderground v.1.15,2013-02-08 17:12:00,
2013-02-08 12:15:00,33.9,32.9,29.88,East,92,0.0,1.0,96,0.00,,,0.00,Wunderground v.1.15,2013-02-08 17:15:00,
2013-02-08 12:16:00,33.9,32.9,29.87,East,92,0.0,1.0,96,0.00,,,0.00,Wunderground v.1.15,2013-02-08 17:16:00,
2013-02-08 12:18:00,33.9,32.9,29.87,ESE,116,0.0,5.0,96,0.00,,,0.00,Wunderground v.1.15,2013-02-08 17:18:00,
2013-02-08 12:20:00,33.8,32.8,29.87,ESE,122,1.0,2.0,96,0.00,,,0.00,Wunderground v.1.15,2013-02-08 17:20:00,
2013-02-08 12:25:00,33.7,32.7,29.86,East,100,1.0,5.0,96,0.00,,,0.00,Wunderground v.1.15,2013-02-08 17:25:00,
2013-02-08 12:26:00,33.7,32.7,29.86,ESE,104,2.0,5.0,96,0.00,,,0.00,Wunderground v.1.15,2013-02-08 17:26:00,
2013-02-08 12:27:00,33.7,32.7,29.86,ESE,106,2.0,5.0,96,0.00,,,0.00,Wunderground v.1.15,2013-02-08 17:27:00,
2013-02-08 12:29:00,33.7,32.7,29.85,ESE,107,2.0,5.0,96,0.00,,,0.00,Wunderground v.1.15,2013-02-08 17:29:00,
2013-02-08 12:30:00,33.7,32.7,29.85,East,82,1.0,2.0,96,0.00,,,0.00,Wunderground v.1.15,2013-02-08 17:30:00,
2013-02-08 12:35:00,33.9,32.9,29.85,ENE,62,1.0,5.0,96,0.00,,,0.01,Wunderground v.1.15,2013-02-08 17:35:00,
2013-02-08 12:37:00,33.9,32.9,29.85,East,90,0.0,5.0,96,0.12,,,0.02,Wunderground v.1.15,2013-02-08 17:37:00,
2013-02-08 12:38:00,34.0,33.0,29.85,East,90,0.0,5.0,96,0.40,,,0.03,Wunderground v.1.15,2013-02-08 17:38:00,
2013-02-08 12:40:00,34.0,33.0,29.85,East,99,0.0,1.0,96,0.26,,,0.03,Wunderground v.1.15,2013-02-08 17:40:00,
2013-02-08 12:43:00,34.0,33.0,29.85,East,82,1.0,2.0,96,0.11,,,0.03,Wunderground v.1.15,2013-02-08 17:43:00,
2013-02-08 12:44:00,33.9,32.9,29.84,SE,145,1.0,2.0,96,0.10,,,0.03,Wunderground v.1.15,2013-02-08 17:44:00,
2013-02-08 12:48:00,33.8,32.8,29.84,ESE,115,1.0,2.0,96,0.06,,,0.03,Wunderground v.1.15,2013-02-08 17:48:00,
2013-02-08 12:52:00,33.7,32.7,29.83,East,96,1.0,5.0,96,0.04,,,0.03,Wunderground v.1.15,2013-02-08 17:52:00,
2013-02-08 12:55:00,33.7,32.7,29.82,East,96,1.0,5.0,96,0.04,,,0.03,Wunderground v.1.15,2013-02-08 17:55:00,
2013-02-08 12:59:00,33.7,32.7,29.81,ENE,69,2.0,5.0,96,0.00,,,0.03,Wunderground v.1.15,2013-02-08 17:59:00,
2013-02-08 13:00:00,33.8,32.8,29.82,SE,134,3.0,3.0,96,0.00,,,0.03,Wunderground v.1.15,2013-02-08 18:00:00,
2013-02-08 13:01:00,33.8,32.8,29.82,ESE,119,3.0,7.0,96,0.00,,,0.03,Wunderground v.1.15,2013-02-08 18:01:00,
2013-02-08 13:04:00,33.8,32.8,29.83,SE,136,2.0,7.0,96,0.00,,,0.03,Wunderground v.1.15,2013-02-08 18:04:00,
2013-02-08 13:05:00,33.7,32.7,29.83,East,91,2.0,7.0,96,0.00,,,0.03,Wunderground v.1.15,2013-02-08 18:05:00,
2013-02-08 13:07:00,33.7,32.7,29.83,East,88,1.0,7.0,96,0.00,,,0.03,Wunderground v.1.15,2013-02-08 18:07:00,
2013-02-08 13:11:00,33.5,32.5,29.84,ESE,123,1.0,2.0,96,0.00,,,0.03,Wunderground v.1.15,2013-02-08 18:11:00,
2013-02-08 13:12:00,33.4,32.4,29.84,ESE,122,1.0,2.0,96,0.00,,,0.03,Wunderground v.1.15,2013-02-08 18:12:00,
2013-02-08 13:15:00,33.4,32.4,29.85,ESE,123,1.0,2.0,96,0.00,,,0.03,Wunderground v.1.15,2013-02-08 18:15:00,
2013-02-08 13:16:00,33.4,32.4,29.85,WNW,289,1.0,2.0,96,0.00,,,0.03,Wunderground v.1.15,2013-02-08 18:16:00,
2013-02-08 13:17:00,33.4,32.4,29.85,WNW,288,1.0,2.0,96,0.00,,,0.03,Wunderground v.1.15,2013-02-08 18:17:00,
2013-02-08 13:20:00,33.4,32.4,29.85,WNW,289,0.0,0.0,96,0.00,,,0.04,Wunderground v.1.15,2013-02-08 18:20:00,
2013-02-08 13:22:00,33.3,32.3,29.85,WNW,288,0.0,0.0,96,0.00,,,0.04,Wunderground v.1.15,2013-02-08 18:22:00,
2013-02-08 13:23:00,33.4,32.4,29.85,WNW,289,0.0,0.0,96,0.00,,,0.04,Wunderground v.1.15,2013-02-08 18:23:00,
2013-02-08 13:25:00,33.4,32.4,29.85,WNW,289,0.0,0.0,96,0.00,,,0.04,Wunderground v.1.15,2013-02-08 18:25:00,
2013-02-08 13:26:00,33.4,32.4,29.85,WNW,288,0.0,0.0,96,0.00,,,0.04,Wunderground v.1.15,2013-02-08 18:26:00,
2013-02-08 13:28:00,33.4,32.4,29.85,WNW,289,0.0,0.0,96,0.00,,,0.04,Wunderground v.1.15,2013-02-08 18:28:00,
2013-02-08 13:30:00,33.5,32.5,29.85,WNW,289,0.0,0.0,96,0.00,,,0.04,Wunderground v.1.15,2013-02-08 18:30:00,
2013-02-08 13:31:00,33.4,32.4,29.85,WNW,289,0.0,7.0,96,0.00,,,0.04,Wunderground v.1.15,2013-02-08 18:31:00,
2013-02-08 13:32:00,33.5,32.5,29.85,WNW,288,0.0,7.0,96,0.00,,,0.04,Wunderground v.1.15,2013-02-08 18:32:00,
2013-02-08 13:33:00,33.5,32.5,29.85,NW,309,0.0,7.0,96,0.00,,,0.04,Wunderground v.1.15,2013-02-08 18:33:00,
2013-02-08 13:37:00,33.1,32.1,29.85,NW,308,1.0,7.0,96,0.00,,,0.04,Wunderground v.1.15,2013-02-08 18:37:00,
2013-02-08 13:39:00,32.9,31.9,29.84,WNW,299,2.0,7.0,96,0.00,,,0.04,Wunderground v.1.15,2013-02-08 18:39:00,
2013-02-08 13:41:00,32.7,31.7,29.84,NNW,340,2.0,2.0,96,0.00,,,0.04,Wunderground v.1.15,2013-02-08 18:41:00,
2013-02-08 13:44:00,32.4,31.4,29.83,NNW,333,2.0,2.0,96,0.00,,,0.04,Wunderground v.1.15,2013-02-08 18:44:00,
2013-02-08 13:49:00,32.3,31.3,29.83,WNW,300,0.0,2.0,96,0.00,,,0.04,Wunderground v.1.15,2013-02-08 18:49:00,
2013-02-08 13:50:00,32.3,31.3,29.82,WNW,301,0.0,0.0,96,0.00,,,0.04,Wunderground v.1.15,2013-02-08 18:50:00,
2013-02-08 13:51:00,32.3,31.3,29.83,WNW,303,0.0,0.0,96,0.00,,,0.04,Wunderground v.1.15,2013-02-08 18:51:00,
2013-02-08 13:56:00,32.3,31.3,29.83,NW,321,1.0,2.0,96,0.00,,,0.04,Wunderground v.1.15,2013-02-08 18:56:00,
2013-02-08 13:58:00,32.2,31.2,29.83,NW,315,1.0,2.0,96,0.00,,,0.04,Wunderground v.1.15,2013-02-08 18:58:00,
2013-02-08 13:59:00,32.2,31.2,29.83,NW,314,1.0,2.0,96,0.00,,,0.04,Wunderground v.1.15,2013-02-08 18:59:00,
2013-02-08 14:02:00,32.1,31.1,29.83,NW,317,1.0,13.0,96,0.00,,,0.04,Wunderground v.1.15,2013-02-08 19:02:00,
2013-02-08 14:04:00,32.1,31.1,29.83,NW,310,1.0,13.0,96,0.00,,,0.04,Wunderground v.1.15,2013-02-08 19:04:00,
2013-02-08 14:06:00,32.0,31.0,29.83,NW,310,0.0,13.0,96,0.00,,,0.04,Wunderground v.1.15,2013-02-08 19:06:00,
2013-02-08 14:09:00,31.9,30.9,29.83,West,277,0.0,13.0,96,0.00,,,0.04,Wunderground v.1.15,2013-02-08 19:09:00,
2013-02-08 14:10:00,31.8,30.8,29.83,WNW,285,0.0,0.0,96,0.00,,,0.04,Wunderground v.1.15,2013-02-08 19:10:00,
2013-02-08 14:15:00,31.7,30.7,29.83,WNW,302,1.0,3.0,96,0.00,,,0.04,Wunderground v.1.15,2013-02-08 19:15:00,
2013-02-08 14:16:00,31.7,30.7,29.83,NW,306,1.0,3.0,96,0.00,,,0.04,Wunderground v.1.15,2013-02-08 19:16:00,
2013-02-08 14:18:00,31.6,30.6,29.83,NW,325,1.0,3.0,96,0.00,,,0.04,Wunderground v.1.15,2013-02-08 19:18:00,
2013-02-08 14:21:00,31.6,30.6,29.83,NNW,344,1.0,4.0,96,0.00,,,0.04,Wunderground v.1.15,2013-02-08 19:21:00,
2013-02-08 14:22:00,31.5,30.5,29.83,NW,325,1.0,4.0,96,0.00,,,0.04,Wunderground v.1.15,2013-02-08 19:22:00,
2013-02-08 14:23:00,31.5,30.5,29.82,NW,313,1.0,4.0,96,0.00,,,0.04,Wunderground v.1.15,2013-02-08 19:23:00,
2013-02-08 14:27:00,31.4,30.4,29.82,NW,310,1.0,4.0,96,0.00,,,0.04,Wunderground v.1.15,2013-02-08 19:27:00,
2013-02-08 14:29:00,31.3,30.3,29.82,WNW,303,1.0,4.0,96,0.00,,,0.04,Wunderground v.1.15,2013-02-08 19:29:00,
2013-02-08 14:30:00,31.3,30.3,29.82,WNW,302,1.0,1.0,96,0.00,,,0.04,Wunderground v.1.15,2013-02-08 19:30:00,
2013-02-08 14:32:00,31.2,30.2,29.82,NW,304,1.0,6.0,96,0.00,,,0.04,Wunderground v.1.15,2013-02-08 19:32:00,
2013-02-08 14:34:00,31.1,30.1,29.82,NW,306,1.0,6.0,96,0.00,,,0.04,Wunderground v.1.15,2013-02-08 19:34:00,
2013-02-08 14:37:00,30.9,29.9,29.82,NW,313,1.0,6.0,96,0.00,,,0.04,Wunderground v.1.15,2013-02-08 19:37:00,
2013-02-08 14:39:00,30.8,29.8,29.81,NW,320,1.0,6.0,96,0.00,,,0.04,Wunderground v.1.15,2013-02-08 19:39:00,
2013-02-08 14:40:00,30.8,29.8,29.81,NNW,327,1.0,1.0,96,0.00,,,0.04,Wunderground v.1.15,2013-02-08 19:40:00,
2013-02-08 14:41:00,30.8,29.8,29.81,NNW,327,1.0,1.0,96,0.00,,,0.04,Wunderground v.1.15,2013-02-08 19:41:00,
2013-02-08 14:43:00,30.8,29.8,29.81,NW,306,1.0,1.0,96,0.00,,,0.04,Wunderground v.1.15,2013-02-08 19:43:00,
2013-02-08 14:45:00,30.7,29.7,29.81,NW,307,1.0,1.0,96,0.00,,,0.04,Wunderground v.1.15,2013-02-08 19:45:00,
2013-02-08 14:46:00,30.8,29.8,29.81,West,269,1.0,1.0,96,0.00,,,0.04,Wunderground v.1.15,2013-02-08 19:46:00,
2013-02-08 14:48:00,30.7,29.7,29.81,WNW,285,1.0,2.0,96,0.00,,,0.04,Wunderground v.1.15,2013-02-08 19:48:00,
2013-02-08 14:50:00,30.7,29.7,29.81,West,277,1.0,3.0,96,0.00,,,0.04,Wunderground v.1.15,2013-02-08 19:50:00,
2013-02-08 14:51:00,30.7,29.7,29.81,West,281,1.0,3.0,96,0.00,,,0.04,Wunderground v.1.15,2013-02-08 19:51:00,
2013-02-08 14:55:00,30.6,29.6,29.82,NW,307,1.0,5.0,96,0.00,,,0.04,Wunderground v.1.15,2013-02-08 19:55:00,
2013-02-08 14:56:00,30.6,29.6,29.82,NNW,329,1.0,5.0,96,0.00,,,0.04,Wunderground v.1.15,2013-02-08 19:56:00,
2013-02-08 14:59:00,30.5,29.5,29.82,NW,315,1.0,5.0,96,0.00,,,0.04,Wunderground v.1.15,2013-02-08 19:59:00,
2013-02-08 15:00:00,30.5,29.5,29.82,NW,313,2.0,2.0,96,0.00,,,0.04,Wunderground v.1.15,2013-02-08 20:00:00,
2013-02-08 15:04:00,30.3,29.3,29.82,NW,318,1.0,6.0,96,0.00,,,0.04,Wunderground v.1.15,2013-02-08 20:04:00,
2013-02-08 15:05:00,30.3,29.3,29.82,NW,311,1.0,6.0,96,0.00,,,0.04,Wunderground v.1.15,2013-02-08 20:05:00,
2013-02-08 15:10:00,30.2,29.2,29.82,NW,315,1.0,3.0,96,0.00,,,0.04,Wunderground v.1.15,2013-02-08 20:10:00,
2013-02-08 15:11:00,30.2,29.2,29.82,NW,308,2.0,4.0,96,0.00,,,0.04,Wunderground v.1.15,2013-02-08 20:11:00,
2013-02-08 15:12:00,30.1,29.1,29.82,NW,311,2.0,4.0,96,0.00,,,0.04,Wunderground v.1.15,2013-02-08 20:12:00,
2013-02-08 15:16:00,30.2,29.2,29.82,WNW,295,1.0,4.0,96,0.00,,,0.04,Wunderground v.1.15,2013-02-08 20:16:00,
2013-02-08 15:17:00,30.2,29.2,29.82,WNW,295,2.0,4.0,96,0.00,,,0.04,Wunderground v.1.15,2013-02-08 20:17:00,
2013-02-08 15:19:00,30.3,29.3,29.82,WNW,298,1.0,4.0,96,0.00,,,0.04,Wunderground v.1.15,2013-02-08 20:19:00,
2013-02-08 15:20:00,30.3,29.3,29.82,WNW,297,1.0,1.0,96,0.00,,,0.04,Wunderground v.1.15,2013-02-08 20:20:00,
2013-02-08 15:24:00,30.3,29.3,29.82,NNW,343,2.0,7.0,96,0.00,,,0.04,Wunderground v.1.15,2013-02-08 20:24:00,
2013-02-08 15:30:00,30.4,29.4,29.82,WNW,299,1.0,1.0,96,0.00,,,0.04,Wunderground v.1.15,2013-02-08 20:30:00,
2013-02-08 15:31:00,30.4,29.4,29.82,North,355,1.0,8.0,96,0.00,,,0.04,Wunderground v.1.15,2013-02-08 20:31:00,
2013-02-08 15:32:00,30.4,29.4,29.82,North,349,1.0,8.0,96,0.00,,,0.04,Wunderground v.1.15,2013-02-08 20:32:00,
2013-02-08 15:33:00,30.5,29.5,29.82,NNW,341,1.0,8.0,96,0.00,,,0.04,Wunderground v.1.15,2013-02-08 20:33:00,
2013-02-08 15:36:00,30.5,29.5,29.82,NNW,332,1.0,8.0,96,0.00,,,0.04,Wunderground v.1.15,2013-02-08 20:36:00,
2013-02-08 15:38:00,30.6,29.6,29.82,NW,316,0.0,8.0,96,0.00,,,0.04,Wunderground v.1.15,2013-02-08 20:38:00,
2013-02-08 15:39:00,30.6,29.6,29.81,NW,311,0.0,8.0,96,0.00,,,0.04,Wunderground v.1.15,2013-02-08 20:39:00,
2013-02-08 15:43:00,30.9,29.9,29.81,NNW,336,2.0,7.0,96,0.00,,,0.04,Wunderground v.1.15,2013-02-08 20:43:00,
2013-02-08 15:45:00,31.0,30.0,29.81,NNW,333,2.0,7.0,96,0.00,,,0.04,Wunderground v.1.15,2013-02-08 20:45:00,
2013-02-08 15:48:00,31.2,30.2,29.81,NNW,331,3.0,7.0,96,0.00,,,0.05,Wunderground v.1.15,2013-02-08 20:48:00,
2013-02-08 15:50:00,31.3,30.3,29.81,NW,308,3.0,3.0,96,0.00,,,0.05,Wunderground v.1.15,2013-02-08 20:50:00,
2013-02-08 15:51:00,31.3,30.3,29.81,NW,319,3.0,3.0,96,0.00,,,0.05,Wunderground v.1.15,2013-02-08 20:51:00,
2013-02-08 15:53:00,31.4,30.4,29.81,NNW,331,2.0,3.0,96,0.00,,,0.05,Wunderground v.1.15,2013-02-08 20:53:00,
2013-02-08 15:57:00,31.5,30.5,29.81,WNW,288,2.0,5.0,96,0.00,,,0.05,Wunderground v.1.15,2013-02-08 20:57:00,
2013-02-08 15:59:00,31.6,30.6,29.81,NW,326,2.0,6.0,96,0.00,,,0.05,Wunderground v.1.15,2013-02-08 20:59:00,
2013-02-08 16:01:00,31.6,30.6,29.81,WNW,302,2.0,7.0,96,0.00,,,0.05,Wunderground v.1.15,2013-02-08 21:01:00,
2013-02-08 16:03:00,31.7,30.7,29.81,WNW,298,2.0,7.0,96,0.00,,,0.05,Wunderground v.1.15,2013-02-08 21:03:00,
2013-02-08 16:08:00,31.8,30.8,29.81,NW,310,2.0,7.0,96,0.00,,,0.05,Wunderground v.1.15,2013-02-08 21:08:00,
2013-02-08 16:09:00,31.9,30.9,29.81,NNW,338,2.0,7.0,96,0.00,,,0.05,Wunderground v.1.15,2013-02-08 21:09:00,
2013-02-08 16:14:00,32.1,31.1,29.81,NW,304,1.0,4.0,96,0.00,,,0.05,Wunderground v.1.15,2013-02-08 21:14:00,
2013-02-08 16:15:00,32.2,31.2,29.81,NW,316,2.0,4.0,96,0.00,,,0.05,Wunderground v.1.15,2013-02-08 21:15:00,
2013-02-08 16:18:00,32.4,31.4,29.81,NW,326,2.0,4.0,96,0.00,,,0.05,Wunderground v.1.15,2013-02-08 21:18:00,
2013-02-08 16:20:00,32.4,31.4,29.81,NW,304,2.0,2.0,96,0.00,,,0.05,Wunderground v.1.15,2013-02-08 21:20:00,
2013-02-08 16:25:00,32.5,31.5,29.81,NNW,330,3.0,7.0,96,0.00,,,0.05,Wunderground v.1.15,2013-02-08 21:25:00,
2013-02-08 16:26:00,32.5,31.5,29.81,WNW,300,3.0,7.0,96,0.00,,,0.05,Wunderground v.1.15,2013-02-08 21:26:00,
2013-02-08 16:27:00,32.5,31.5,29.81,WNW,288,3.0,7.0,96,0.00,,,0.05,Wunderground v.1.15,2013-02-08 21:27:00,
2013-02-08 16:32:00,32.5,31.5,29.81,WNW,302,4.0,8.0,96,0.00,,,0.05,Wunderground v.1.15,2013-02-08 21:32:00,
2013-02-08 16:33:00,32.5,31.5,29.81,WNW,290,4.0,8.0,96,0.00,,,0.05,Wunderground v.1.15,2013-02-08 21:33:00,
2013-02-08 16:34:00,32.4,31.4,29.81,WNW,290,4.0,8.0,96,0.00,,,0.05,Wunderground v.1.15,2013-02-08 21:34:00,
2013-02-08 16:39:00,32.5,31.7,29.81,West,275,4.0,8.0,97,0.00,,,0.05,Wunderground v.1.15,2013-02-08 21:39:00,
2013-02-08 16:44:00,32.5,31.7,29.81,WNW,303,4.0,6.0,97,0.00,,,0.05,Wunderground v.1.15,2013-02-08 21:44:00,
2013-02-08 16:45:00,32.6,31.8,29.81,NNW,333,4.0,7.0,97,0.00,,,0.05,Wunderground v.1.15,2013-02-08 21:45:00,
2013-02-08 16:48:00,32.6,31.8,29.81,West,273,4.0,7.0,97,0.00,,,0.05,Wunderground v.1.15,2013-02-08 21:48:00,
2013-02-08 16:49:00,32.5,31.7,29.81,WNW,298,4.0,7.0,97,0.00,,,0.05,Wunderground v.1.15,2013-02-08 21:49:00,
2013-02-08 16:50:00,32.6,31.8,29.81,WNW,283,4.0,4.0,97,0.00,,,0.05,Wunderground v.1.15,2013-02-08 21:50:00,
2013-02-08 16:52:00,32.5,31.7,29.81,WNW,287,5.0,6.0,97,0.00,,,0.05,Wunderground v.1.15,2013-02-08 21:52:00,
2013-02-08 16:54:00,32.5,31.7,29.81,West,276,4.0,6.0,97,0.00,,,0.05,Wunderground v.1.15,2013-02-08 21:54:00,
2013-02-08 16:55:00,32.5,31.5,29.81,NW,317,4.0,6.0,96,0.00,,,0.05,Wunderground v.1.15,2013-02-08 21:55:00,
2013-02-08 16:57:00,32.4,31.4,29.81,WNW,296,4.0,6.0,96,0.00,,,0.05,Wunderground v.1.15,2013-02-08 21:57:00,
2013-02-08 16:58:00,32.3,31.3,29.81,WNW,286,4.0,6.0,96,0.00,,,0.05,Wunderground v.1.15,2013-02-08 21:58:00,
2013-02-08 17:00:00,32.3,31.3,29.81,WNW,292,4.0,4.0,96,0.00,,,0.05,Wunderground v.1.15,2013-02-08 22:00:00,
2013-02-08 17:01:00,32.3,31.3,29.81,WNW,294,4.0,11.0,96,0.00,,,0.05,Wunderground v.1.15,2013-02-08 22:01:00,
2013-02-08 17:02:00,32.3,31.3,29.81,WNW,285,4.0,11.0,96,0.00,,,0.05,Wunderground v.1.15,2013-02-08 22:02:00,
2013-02-08 17:07:00,32.2,31.2,29.81,WNW,302,4.0,11.0,96,0.00,,,0.05,Wunderground v.1.15,2013-02-08 22:07:00,
2013-02-08 17:09:00,32.1,31.3,29.82,WNW,292,4.0,11.0,97,0.00,,,0.05,Wunderground v.1.15,2013-02-08 22:09:00,
2013-02-08 17:13:00,32.0,31.2,29.82,WNW,294,5.0,7.0,97,0.00,,,0.05,Wunderground v.1.15,2013-02-08 22:13:00,
2013-02-08 17:17:00,32.0,31.2,29.82,West,277,5.0,7.0,97,0.00,,,0.05,Wunderground v.1.15,2013-02-08 22:17:00,
2013-02-08 17:18:00,31.9,31.1,29.82,NW,311,5.0,7.0,97,0.00,,,0.05,Wunderground v.1.15,2013-02-08 22:18:00,
2013-02-08 17:21:00,31.9,31.1,29.82,West,277,5.0,5.0,97,0.00,,,0.05,Wunderground v.1.15,2013-02-08 22:21:00,
2013-02-08 17:22:00,31.9,31.1,29.82,WNW,302,5.0,5.0,97,0.00,,,0.05,Wunderground v.1.15,2013-02-08 22:22:00,
2013-02-08 17:25:00,32.0,31.2,29.82,WNW,292,5.0,10.0,97,0.00,,,0.05,Wunderground v.1.15,2013-02-08 22:25:00,
2013-02-08 17:28:00,32.0,31.2,29.83,NW,320,5.0,10.0,97,0.00,,,0.05,Wunderground v.1.15,2013-02-08 22:28:00,
2013-02-08 17:30:00,32.0,31.2,29.82,NW,323,5.0,6.0,97,0.00,,,0.05,Wunderground v.1.15,2013-02-08 22:30:00,
2013-02-08 17:31:00,32.0,31.2,29.83,WNW,288,5.0,14.0,97,0.00,,,0.05,Wunderground v.1.15,2013-02-08 22:31:00,
2013-02-08 17:36:00,32.0,31.2,29.83,West,281,5.0,14.0,97,0.00,,,0.05,Wunderground v.1.15,2013-02-08 22:36:00,
2013-02-08 17:37:00,32.0,31.2,29.82,WNW,294,5.0,14.0,97,0.00,,,0.05,Wunderground v.1.15,2013-02-08 22:37:00,
2013-02-08 17:40:00,31.9,31.1,29.83,WNW,298,5.0,5.0,97,0.00,,,0.05,Wunderground v.1.15,2013-02-08 22:40:00,
2013-02-08 17:42:00,31.9,31.1,29.82,West,273,5.0,7.0,97,0.00,,,0.05,Wunderground v.1.15,2013-02-08 22:42:00,
2013-02-08 17:46:00,32.0,31.2,29.82,NW,310,5.0,7.0,97,0.00,,,0.05,Wunderground v.1.15,2013-02-08 22:46:00,
2013-02-08 17:49:00,32.1,31.3,29.82,NNW,336,5.0,7.0,97,0.00,,,0.05,Wunderground v.1.15,2013-02-08 22:49:00,
2013-02-08 17:50:00,32.1,31.3,29.82,West,279,5.0,5.0,97,0.00,,,0.05,Wunderground v.1.15,2013-02-08 22:50:00,
2013-02-08 17:51:00,32.1,31.3,29.82,West,280,5.0,5.0,97,0.00,,,0.05,Wunderground v.1.15,2013-02-08 22:51:00,
2013-02-08 17:56:00,32.2,31.4,29.82,WNW,286,6.0,8.0,97,0.00,,,0.05,Wunderground v.1.15,2013-02-08 22:56:00,
2013-02-08 17:57:00,32.2,31.4,29.82,NW,309,6.0,8.0,97,0.00,,,0.05,Wunderground v.1.15,2013-02-08 22:57:00,
2013-02-08 17:59:00,32.1,31.3,29.82,NW,319,6.0,9.0,97,0.00,,,0.05,Wunderground v.1.15,2013-02-08 22:59:00,
2013-02-08 18:00:00,32.2,31.4,29.82,WNW,285,6.0,6.0,97,0.00,,,0.05,Wunderground v.1.15,2013-02-08 23:00:00,
2013-02-08 18:04:00,32.1,31.3,29.82,NNE,28,6.0,13.0,97,0.00,,,0.05,Wunderground v.1.15,2013-02-08 23:04:00,
2013-02-08 18:05:00,32.1,31.3,29.82,WSW,242,6.0,13.0,97,0.00,,,0.05,Wunderground v.1.15,2013-02-08 23:05:00,
2013-02-08 18:09:00,32.1,31.3,29.82,WNW,284,7.0,13.0,97,0.00,,,0.05,Wunderground v.1.15,2013-02-08 23:09:00,
2013-02-08 18:12:00,32.1,31.3,29.82,NW,309,7.0,9.0,97,0.00,,,0.05,Wunderground v.1.15,2013-02-08 23:12:00,
2013-02-08 18:14:00,32.1,31.3,29.81,NW,308,7.0,9.0,97,0.00,,,0.05,Wunderground v.1.15,2013-02-08 23:14:00,
2013-02-08 18:16:00,32.1,31.3,29.82,NW,311,7.0,9.0,97,0.00,,,0.05,Wunderground v.1.15,2013-02-08 23:16:00,
2013-02-08 18:18:00,32.2,31.4,29.81,NW,304,7.0,11.0,97,0.00,,,0.05,Wunderground v.1.15,2013-02-08 23:18:00,
2013-02-08 18:22:00,32.2,31.2,29.82,NW,310,7.0,9.0,96,0.00,,,0.05,Wunderground v.1.15,2013-02-08 23:22:00,
2013-02-08 18:24:00,32.3,31.3,29.82,West,275,7.0,9.0,96,0.00,,,0.05,Wunderground v.1.15,2013-02-08 23:24:00,
2013-02-08 18:27:00,32.3,31.3,29.82,WNW,298,7.0,10.0,96,0.00,,,0.05,Wunderground v.1.15,2013-02-08 23:27:00,
2013-02-08 18:28:00,32.4,31.4,29.82,WNW,283,8.0,11.0,96,0.00,,,0.05,Wunderground v.1.15,2013-02-08 23:28:00,
2013-02-08 18:30:00,32.4,31.4,29.82,WNW,286,8.0,8.0,96,0.00,,,0.05,Wunderground v.1.15,2013-02-08 23:30:00,
2013-02-08 18:33:00,32.4,31.4,29.83,WNW,297,7.0,19.0,96,0.00,,,0.05,Wunderground v.1.15,2013-02-08 23:33:00,
2013-02-08 18:34:00,32.4,31.4,29.83,NW,325,7.0,19.0,96,0.00,,,0.05,Wunderground v.1.15,2013-02-08 23:34:00,
2013-02-08 18:37:00,32.4,31.4,29.83,WNW,291,7.0,19.0,96,0.00,,,0.05,Wunderground v.1.15,2013-02-08 23:37:00,
2013-02-08 18:39:00,32.4,31.4,29.83,NNW,340,7.0,19.0,96,0.00,,,0.05,Wunderground v.1.15,2013-02-08 23:39:00,
2013-02-08 18:40:00,32.4,31.4,29.83,WNW,299,7.0,8.0,96,0.00,,,0.05,Wunderground v.1.15,2013-02-08 23:40:00,
2013-02-08 18:42:00,32.4,31.4,29.83,NW,325,7.0,8.0,96,0.00,,,0.05,Wunderground v.1.15,2013-02-08 23:42:00,
2013-02-08 18:45:00,32.3,31.3,29.83,WNW,299,7.0,8.0,96,0.00,,,0.05,Wunderground v.1.15,2013-02-08 23:45:00,
2013-02-08 18:47:00,32.3,31.3,29.83,WNW,291,7.0,9.0,96,0.00,,,0.05,Wunderground v.1.15,2013-02-08 23:47:00,
2013-02-08 18:49:00,32.3,31.3,29.83,WNW,283,8.0,9.0,96,0.00,,,0.05,Wunderground v.1.15,2013-02-08 23:49:00,
2013-02-08 18:53:00,32.3,31.5,29.83,West,269,7.0,13.0,97,0.00,,,0.05,Wunderground v.1.15,2013-02-08 23:53:00,
2013-02-08 18:54:00,32.3,31.3,29.83,WNW,292,8.0,13.0,96,0.00,,,0.05,Wunderground v.1.15,2013-02-08 23:54:00,
2013-02-08 18:55:00,32.3,31.3,29.83,West,277,7.0,13.0,96,0.00,,,0.05,Wunderground v.1.15,2013-02-08 23:55:00,
2013-02-08 18:58:00,32.2,31.2,29.83,WNW,288,7.0,13.0,96,0.00,,,0.05,Wunderground v.1.15,2013-02-08 23:58:00,
2013-02-08 19:00:00,32.1,31.1,29.83,WNW,287,8.0,9.0,96,0.00,,,0.05,Wunderground v.1.15,2013-02-09 00:00:00,
2013-02-08 19:01:00,32.1,31.1,29.83,WNW,284,8.0,10.0,96,0.00,,,0.05,Wunderground v.1.15,2013-02-09 00:01:00,
2013-02-08 19:07:00,32.0,31.0,29.82,WNW,285,9.0,19.0,96,0.00,,,0.05,Wunderground v.1.15,2013-02-09 00:07:00,
2013-02-08 19:08:00,32.0,30.7,29.83,WNW,294,9.0,19.0,95,0.00,,,0.05,Wunderground v.1.15,2013-02-09 00:08:00,
2013-02-08 19:10:00,32.0,30.7,29.83,WNW,285,9.0,9.0,95,0.00,,,0.05,Wunderground v.1.15,2013-02-09 00:10:00,
2013-02-08 19:11:00,32.0,30.7,29.83,West,261,9.0,9.0,95,0.00,,,0.05,Wunderground v.1.15,2013-02-09 00:11:00,
2013-02-08 19:15:00,31.9,30.4,29.83,NW,309,9.0,11.0,94,0.00,,,0.05,Wunderground v.1.15,2013-02-09 00:15:00,
2013-02-08 19:16:00,31.9,30.4,29.83,WNW,292,10.0,11.0,94,0.00,,,0.05,Wunderground v.1.15,2013-02-09 00:16:00,
2013-02-08 19:21:00,31.8,29.7,29.83,West,261,9.0,9.0,92,0.00,,,0.05,Wunderground v.1.15,2013-02-09 00:21:00,
2013-02-08 19:23:00,31.7,29.6,29.83,West,261,8.0,9.0,92,0.00,,,0.05,Wunderground v.1.15,2013-02-09 00:23:00,
2013-02-08 19:25:00,31.7,29.4,29.83,WNW,294,8.0,9.0,91,0.00,,,0.05,Wunderground v.1.15,2013-02-09 00:25:00,
2013-02-08 19:29:00,31.6,29.0,29.84,West,281,8.0,11.0,90,0.00,,,0.05,Wunderground v.1.15,2013-02-09 00:29:00,
2013-02-08 19:31:00,31.5,28.9,29.84,West,265,8.0,25.0,90,0.00,,,0.05,Wunderground v.1.15,2013-02-09 00:31:00,
2013-02-08 19:33:00,31.5,28.9,29.84,WNW,292,9.0,25.0,90,0.00,,,0.05,Wunderground v.1.15,2013-02-09 00:33:00,
2013-02-08 19:35:00,31.5,28.6,29.83,WNW,303,9.0,25.0,89,0.00,,,0.05,Wunderground v.1.15,2013-02-09 00:35:00,
2013-02-08 19:36:00,31.4,28.5,29.84,WNW,297,9.0,25.0,89,0.00,,,0.05,Wunderground v.1.15,2013-02-09 00:36:00,
2013-02-08 19:39:00,31.4,28.5,29.84,WNW,300,9.0,25.0,89,0.00,,,0.05,Wunderground v.1.15,2013-02-09 00:39:00,
2013-02-08 19:41:00,31.4,28.5,29.84,WNW,286,9.0,9.0,89,0.00,,,0.05,Wunderground v.1.15,2013-02-09 00:41:00,
2013-02-08 19:44:00,31.3,28.2,29.84,WNW,282,8.0,9.0,88,0.00,,,0.05,Wunderground v.1.15,2013-02-09 00:44:00,
2013-02-08 19:46:00,31.3,28.2,29.84,NW,321,8.0,9.0,88,0.00,,,0.05,Wunderground v.1.15,2013-02-09 00:46:00,
2013-02-08 19:48:00,31.2,28.1,29.85,NNW,344,7.0,9.0,88,0.00,,,0.05,Wunderground v.1.15,2013-02-09 00:48:00,
2013-02-08 19:49:00,31.2,28.1,29.85,WNW,285,7.0,9.0,88,0.00,,,0.05,Wunderground v.1.15,2013-02-09 00:49:00,
2013-02-08 19:50:00,31.2,28.1,29.85,NW,313,7.0,7.0,88,0.00,,,0.05,Wunderground v.1.15,2013-02-09 00:50:00,
2013-02-08 19:52:00,31.2,28.1,29.85,NW,319,7.0,7.0,88,0.00,,,0.05,Wunderground v.1.15,2013-02-09 00:52:00,
2013-02-08 19:54:00,31.1,28.0,29.85,NNW,341,6.0,7.0,88,0.00,,,0.05,Wunderground v.1.15,2013-02-09 00:54:00,
2013-02-08 19:56:00,31.1,28.0,29.86,NW,313,6.0,7.0,88,0.00,,,0.05,Wunderground v.1.15,2013-02-09 00:56:00,
2013-02-08 20:00:00,31.0,27.3,29.86,North,355,6.0,7.0,86,0.00,,,0.05,Wunderground v.1.15,2013-02-09 01:00:00,
2013-02-08 20:01:00,31.0,27.3,29.86,West,269,6.0,25.0,86,0.00,,,0.05,Wunderground v.1.15,2013-02-09 01:01:00,
2013-02-08 20:02:00,31.0,27.3,29.86,NNW,334,6.0,25.0,86,0.00,,,0.05,Wunderground v.1.15,2013-02-09 01:02:00,
2013-02-08 20:03:00,30.9,26.9,29.86,NW,306,6.0,25.0,85,0.00,,,0.05,Wunderground v.1.15,2013-02-09 01:03:00,
2013-02-08 20:07:00,30.8,26.8,29.86,NW,309,6.0,25.0,85,0.00,,,0.05,Wunderground v.1.15,2013-02-09 01:07:00,
2013-02-08 20:08:00,30.8,26.8,29.86,NW,309,5.0,25.0,85,0.00,,,0.05,Wunderground v.1.15,2013-02-09 01:08:00,
2013-02-08 20:09:00,30.8,26.8,29.86,NNE,24,5.0,25.0,85,0.00,,,0.05,Wunderground v.1.15,2013-02-09 01:09:00,
2013-02-08 20:10:00,30.8,26.8,29.86,WNW,292,5.0,5.0,85,0.00,,,0.05,Wunderground v.1.15,2013-02-09 01:10:00,
2013-02-08 20:15:00,30.6,26.9,29.87,NNW,336,3.0,5.0,86,0.00,,,0.05,Wunderground v.1.15,2013-02-09 01:15:00,
2013-02-08 20:16:00,30.6,26.9,29.87,WNW,284,3.0,5.0,86,0.00,,,0.05,Wunderground v.1.15,2013-02-09 01:16:00,
2013-02-08 20:20:00,30.5,26.8,29.87,NNW,346,3.0,5.0,86,0.00,,,0.05,Wunderground v.1.15,2013-02-09 01:20:00,
2013-02-08 20:22:00,30.5,26.8,29.87,WNW,296,4.0,5.0,86,0.00,,,0.05,Wunderground v.1.15,2013-02-09 01:22:00,
2013-02-08 20:25:00,30.4,26.7,29.87,West,280,4.0,5.0,86,0.00,,,0.05,Wunderground v.1.15,2013-02-09 01:25:00,
2013-02-08 20:26:00,30.4,26.7,29.87,NW,306,4.0,5.0,86,0.00,,,0.05,Wunderground v.1.15,2013-02-09 01:26:00,
2013-02-08 20:28:00,30.3,26.3,29.88,NW,325,4.0,9.0,85,0.00,,,0.05,Wunderground v.1.15,2013-02-09 01:28:00,
2013-02-08 20:29:00,30.3,26.3,29.88,NW,319,4.0,9.0,85,0.00,,,0.05,Wunderground v.1.15,2013-02-09 01:29:00,
2013-02-08 20:33:00,30.2,25.9,29.88,NW,319,7.0,23.0,84,0.00,,,0.05,Wunderground v.1.15,2013-02-09 01:33:00,
2013-02-08 20:36:00,30.1,26.1,29.88,NW,315,7.0,23.0,85,0.00,,,0.05,Wunderground v.1.15,2013-02-09 01:36:00,
2013-02-08 20:38:00,30.0,25.8,29.88,NW,315,8.0,23.0,84,0.00,,,0.05,Wunderground v.1.15,2013-02-09 01:38:00,
2013-02-08 20:41:00,30.0,25.8,29.88,WNW,284,7.0,8.0,84,0.00,,,0.05,Wunderground v.1.15,2013-02-09 01:41:00,
2013-02-08 20:42:00,29.9,25.7,29.88,WNW,298,7.0,8.0,84,0.00,,,0.05,Wunderground v.1.15,2013-02-09 01:42:00,
2013-02-08 20:44:00,29.9,25.7,29.88,WNW,291,6.0,10.0,84,0.00,,,0.05,Wunderground v.1.15,2013-02-09 01:44:00,
2013-02-08 20:47:00,29.7,25.2,29.89,WSW,257,7.0,11.0,83,0.00,,,0.05,Wunderground v.1.15,2013-02-09 01:47:00,
2013-02-08 20:49:00,29.7,25.2,29.89,NNW,331,7.0,11.0,83,0.00,,,0.05,Wunderground v.1.15,2013-02-09 01:49:00,
2013-02-08 20:54:00,29.5,25.0,29.89,WNW,291,8.0,15.0,83,0.00,,,0.05,Wunderground v.1.15,2013-02-09 01:54:00,
2013-02-08 20:56:00,29.4,24.9,29.89,NNW,329,9.0,15.0,83,0.00,,,0.05,Wunderground v.1.15,2013-02-09 01:56:00,
2013-02-08 20:57:00,29.4,24.9,29.89,NW,317,9.0,15.0,83,0.00,,,0.05,Wunderground v.1.15,2013-02-09 01:57:00,
2013-02-08 21:01:00,29.3,24.8,29.89,North,349,7.0,24.0,83,0.00,,,0.05,Wunderground v.1.15,2013-02-09 02:01:00,
2013-02-08 21:02:00,29.3,25.1,29.89,West,268,7.0,24.0,84,0.00,,,0.05,Wunderground v.1.15,2013-02-09 02:02:00,
2013-02-08 21:06:00,29.2,24.7,29.89,WNW,294,6.0,24.0,83,0.00,,,0.05,Wunderground v.1.15,2013-02-09 02:06:00,
2013-02-08 21:07:00,29.2,24.7,29.89,WNW,295,6.0,24.0,83,0.00,,,0.05,Wunderground v.1.15,2013-02-09 02:07:00,
2013-02-08 21:08:00,29.1,24.6,29.89,West,275,6.0,24.0,83,0.00,,,0.05,Wunderground v.1.15,2013-02-09 02:08:00,
2013-02-08 21:09:00,29.1,24.6,29.89,West,271,6.0,24.0,83,0.00,,,0.05,Wunderground v.1.15,2013-02-09 02:09:00,
2013-02-08 21:13:00,29.0,24.5,29.90,NNW,334,6.0,12.0,83,0.00,,,0.05,Wunderground v.1.15,2013-02-09 02:13:00,
2013-02-08 21:15:00,29.0,24.5,29.90,WNW,291,6.0,12.0,83,0.00,,,0.05,Wunderground v.1.15,2013-02-09 02:15:00,
2013-02-08 21:16:00,29.0,24.5,29.90,West,280,6.0,12.0,83,0.00,,,0.05,Wunderground v.1.15,2013-02-09 02:16:00,
2013-02-08 21:19:00,28.9,24.4,29.90,WNW,284,7.0,12.0,83,0.00,,,0.05,Wunderground v.1.15,2013-02-09 02:19:00,
2013-02-08 21:21:00,28.9,24.4,29.89,West,275,6.0,7.0,83,0.00,,,0.05,Wunderground v.1.15,2013-02-09 02:21:00,
2013-02-08 21:22:00,28.8,24.3,29.89,West,280,6.0,9.0,83,0.00,,,0.05,Wunderground v.1.15,2013-02-09 02:22:00,
2013-02-08 21:25:00,28.8,24.3,29.89,WNW,296,6.0,10.0,83,0.00,,,0.05,Wunderground v.1.15,2013-02-09 02:25:00,
2013-02-08 21:27:00,28.6,23.8,29.90,West,279,7.0,10.0,82,0.00,,,0.05,Wunderground v.1.15,2013-02-09 02:27:00,
2013-02-08 21:28:00,28.5,23.7,29.89,North,355,7.0,10.0,82,0.00,,,0.05,Wunderground v.1.15,2013-02-09 02:28:00,
2013-02-08 21:31:00,28.4,23.3,29.89,WNW,285,9.0,23.0,81,0.00,,,0.05,Wunderground v.1.15,2013-02-09 02:31:00,
2013-02-08 21:32:00,28.4,23.3,29.89,NNW,336,9.0,23.0,81,0.00,,,0.05,Wunderground v.1.15,2013-02-09 02:32:00,
2013-02-08 21:33:00,28.3,23.2,29.89,West,280,10.0,23.0,81,0.00,,,0.05,Wunderground v.1.15,2013-02-09 02:33:00,
2013-02-08 21:35:00,28.2,23.1,29.89,WNW,282,10.0,23.0,81,0.00,,,0.05,Wunderground v.1.15,2013-02-09 02:35:00,
2013-02-08 21:37:00,28.1,23.0,29.89,NW,315,10.0,23.0,81,0.00,,,0.05,Wunderground v.1.15,2013-02-09 02:37:00,
2013-02-08 21:40:00,28.1,23.0,29.89,NW,304,10.0,10.0,81,0.00,,,0.05,Wunderground v.1.15,2013-02-09 02:40:00,
2013-02-08 21:42:00,28.0,23.2,29.89,NW,322,9.0,21.0,82,0.00,,,0.05,Wunderground v.1.15,2013-02-09 02:42:00,
2013-02-08 21:45:00,27.9,22.8,29.90,North,360,9.0,21.0,81,0.00,,,0.05,Wunderground v.1.15,2013-02-09 02:45:00,
2013-02-08 21:47:00,27.9,22.8,29.90,NW,316,9.0,21.0,81,0.00,,,0.05,Wunderground v.1.15,2013-02-09 02:47:00,
2013-02-08 21:49:00,27.8,22.7,29.90,West,272,9.0,21.0,81,0.00,,,0.05,Wunderground v.1.15,2013-02-09 02:49:00,
2013-02-08 21:51:00,27.8,22.7,29.90,NW,306,9.0,9.0,81,0.00,,,0.05,Wunderground v.1.15,2013-02-09 02:51:00,
2013-02-08 21:52:00,27.8,23.0,29.90,NW,306,9.0,9.0,82,0.00,,,0.05,Wunderground v.1.15,2013-02-09 02:52:00,
2013-02-08 21:56:00,27.7,22.6,29.90,North,355,8.0,10.0,81,0.00,,,0.05,Wunderground v.1.15,2013-02-09 02:56:00,
2013-02-08 21:59:00,27.6,22.8,29.91,NW,307,8.0,10.0,82,0.00,,,0.05,Wunderground v.1.15,2013-02-09 02:59:00,
2013-02-08 22:01:00,27.6,22.5,29.90,NW,311,8.0,21.0,81,0.00,,,0.05,Wunderground v.1.15,2013-02-09 03:01:00,
2013-02-08 22:03:00,27.5,22.4,29.91,West,275,9.0,21.0,81,0.00,,,0.05,Wunderground v.1.15,2013-02-09 03:03:00,
2013-02-08 22:06:00,27.4,22.3,29.91,North,355,9.0,21.0,81,0.00,,,0.05,Wunderground v.1.15,2013-02-09 03:06:00,
2013-02-08 22:08:00,27.3,22.2,29.90,NW,305,9.0,21.0,81,0.00,,,0.05,Wunderground v.1.15,2013-02-09 03:08:00,
2013-02-08 22:09:00,27.3,22.2,29.90,NNE,13,9.0,21.0,81,0.00,,,0.05,Wunderground v.1.15,2013-02-09 03:09:00,
2013-02-08 22:11:00,27.2,21.8,29.91,NW,309,9.0,26.0,80,0.00,,,0.05,Wunderground v.1.15,2013-02-09 03:11:00,
2013-02-08 22:12:00,27.2,21.8,29.91,West,271,9.0,26.0,80,0.00,,,0.05,Wunderground v.1.15,2013-02-09 03:12:00,
2013-02-08 22:14:00,27.1,21.7,29.91,NNW,327,8.0,26.0,80,0.00,,,0.05,Wunderground v.1.15,2013-02-09 03:14:00,
2013-02-08 22:17:00,27.0,21.7,29.91,WNW,288,9.0,26.0,80,0.00,,,0.05,Wunderground v.1.15,2013-02-09 03:17:00,
2013-02-08 22:18:00,26.9,21.6,29.92,NW,311,10.0,26.0,80,0.00,,,0.05,Wunderground v.1.15,2013-02-09 03:18:00,
2013-02-08 22:20:00,26.9,21.6,29.92,NW,325,9.0,9.0,80,0.00,,,0.05,Wunderground v.1.15,2013-02-09 03:20:00,
2013-02-08 22:23:00,26.8,21.8,29.92,WSW,254,8.0,10.0,81,0.00,,,0.05,Wunderground v.1.15,2013-02-09 03:23:00,
2013-02-08 22:26:00,26.8,21.8,29.92,NW,321,7.0,10.0,81,0.00,,,0.05,Wunderground v.1.15,2013-02-09 03:26:00,
2013-02-08 22:27:00,26.7,21.7,29.92,WNW,288,6.0,10.0,81,0.00,,,0.05,Wunderground v.1.15,2013-02-09 03:27:00,
2013-02-08 22:28:00,26.6,21.3,29.92,WNW,288,7.0,10.0,80,0.00,,,0.05,Wunderground v.1.15,2013-02-09 03:28:00,
2013-02-08 22:29:00,26.6,21.3,29.92,WNW,299,7.0,14.0,80,0.00,,,0.05,Wunderground v.1.15,2013-02-09 03:29:00,
2013-02-08 22:31:00,26.6,21.3,29.93,West,275,7.0,26.0,80,0.00,,,0.05,Wunderground v.1.15,2013-02-09 03:31:00,
2013-02-08 22:35:00,26.5,21.2,29.93,NNW,338,8.0,26.0,80,0.00,,,0.05,Wunderground v.1.15,2013-02-09 03:35:00,
2013-02-08 22:36:00,26.5,21.2,29.93,NW,309,8.0,26.0,80,0.00,,,0.05,Wunderground v.1.15,2013-02-09 03:36:00,
2013-02-08 22:37:00,26.5,21.5,29.93,NW,314,9.0,26.0,81,0.00,,,0.05,Wunderground v.1.15,2013-02-09 03:37:00,
2013-02-08 22:41:00,26.4,21.4,29.93,North,349,9.0,19.0,81,0.00,,,0.05,Wunderground v.1.15,2013-02-09 03:41:00,
2013-02-08 22:43:00,26.3,21.3,29.93,NNW,329,10.0,19.0,81,0.00,,,0.05,Wunderground v.1.15,2013-02-09 03:43:00,
2013-02-08 22:47:00,26.2,21.2,29.93,NW,316,10.0,19.0,81,0.00,,,0.05,Wunderground v.1.15,2013-02-09 03:47:00,
2013-02-08 22:48:00,26.3,21.3,29.93,NNW,334,9.0,19.0,81,0.00,,,0.05,Wunderground v.1.15,2013-02-09 03:48:00,
2013-02-08 22:49:00,26.3,21.3,29.93,NW,318,9.0,19.0,81,0.00,,,0.05,Wunderground v.1.15,2013-02-09 03:49:00,
2013-02-08 22:52:00,26.2,21.5,29.93,WNW,295,7.0,9.0,82,0.00,,,0.05,Wunderground v.1.15,2013-02-09 03:52:00,
2013-02-08 22:55:00,26.2,21.5,29.92,WNW,295,6.0,13.0,82,0.00,,,0.05,Wunderground v.1.15,2013-02-09 03:55:00,
2013-02-08 22:58:00,26.2,21.5,29.93,WNW,288,6.0,13.0,82,0.00,,,0.05,Wunderground v.1.15,2013-02-09 03:58:00,
2013-02-08 22:59:00,26.2,21.5,29.93,NW,312,6.0,13.0,82,0.00,,,0.05,Wunderground v.1.15,2013-02-09 03:59:00,
2013-02-08 23:02:00,26.1,21.4,29.93,WSW,258,6.0,26.0,82,0.00,,,0.05,Wunderground v.1.15,2013-02-09 04:02:00,
2013-02-08 23:03:00,26.1,21.4,29.92,NW,309,7.0,26.0,82,0.00,,,0.05,Wunderground v.1.15,2013-02-09 04:03:00,
2013-02-08 23:07:00,26.1,21.4,29.92,West,277,7.0,26.0,82,0.00,,,0.05,Wunderground v.1.15,2013-02-09 04:07:00,
2013-02-08 23:08:00,26.1,21.4,29.93,NW,318,7.0,26.0,82,0.00,,,0.05,Wunderground v.1.15,2013-02-09 04:08:00,
2013-02-08 23:09:00,26.0,21.5,29.92,WNW,284,6.0,26.0,83,0.00,,,0.05,Wunderground v.1.15,2013-02-09 04:09:00,
2013-02-08 23:15:00,26.1,21.4,29.92,WNW,291,7.0,13.0,82,0.00,,,0.05,Wunderground v.1.15,2013-02-09 04:15:00,
2013-02-08 23:16:00,26.1,21.6,29.92,WNW,286,7.0,13.0,83,0.00,,,0.05,Wunderground v.1.15,2013-02-09 04:16:00,
2013-02-08 23:18:00,26.0,21.3,29.92,NW,324,7.0,14.0,82,0.00,,,0.05,Wunderground v.1.15,2013-02-09 04:18:00,
2013-02-08 23:21:00,26.0,21.3,29.92,NW,305,8.0,18.0,82,0.00,,,0.05,Wunderground v.1.15,2013-02-09 04:21:00,
2013-02-08 23:24:00,25.9,21.2,29.92,NW,317,7.0,18.0,82,0.00,,,0.05,Wunderground v.1.15,2013-02-09 04:24:00,
2013-02-08 23:27:00,25.9,21.2,29.93,NW,320,8.0,18.0,82,0.00,,,0.05,Wunderground v.1.15,2013-02-09 04:27:00,
2013-02-08 23:30:00,25.9,21.2,29.93,NNW,337,7.0,7.0,82,0.00,,,0.05,Wunderground v.1.15,2013-02-09 04:30:00,
2013-02-08 23:32:00,25.9,21.2,29.93,NW,322,7.0,22.0,82,0.00,,,0.05,Wunderground v.1.15,2013-02-09 04:32:00,
2013-02-08 23:33:00,25.9,21.2,29.93,WNW,284,7.0,22.0,82,0.00,,,0.05,Wunderground v.1.15,2013-02-09 04:33:00,
2013-02-08 23:35:00,25.9,21.2,29.93,NW,306,7.0,22.0,82,0.00,,,0.05,Wunderground v.1.15,2013-02-09 04:35:00,
2013-02-08 23:37:00,25.9,21.2,29.94,NW,317,8.0,22.0,82,0.00,,,0.05,Wunderground v.1.15,2013-02-09 04:37:00,
2013-02-08 23:39:00,26.0,21.3,29.94,NW,325,8.0,22.0,82,0.00,,,0.05,Wunderground v.1.15,2013-02-09 04:39:00,
2013-02-08 23:40:00,25.9,21.2,29.94,NW,309,8.0,8.0,82,0.00,,,0.05,Wunderground v.1.15,2013-02-09 04:40:00,
2013-02-08 23:45:00,25.9,21.2,29.94,West,269,6.0,8.0,82,0.00,,,0.05,Wunderground v.1.15,2013-02-09 04:45:00,
2013-02-08 23:49:00,25.8,20.8,29.94,NW,322,6.0,15.0,81,0.00,,,0.05,Wunderground v.1.15,2013-02-09 04:49:00,
2013-02-08 23:51:00,25.8,20.8,29.94,WNW,288,7.0,11.0,81,0.00,,,0.05,Wunderground v.1.15,2013-02-09 04:51:00,
2013-02-08 23:52:00,25.7,20.7,29.94,WNW,290,8.0,11.0,81,0.00,,,0.05,Wunderground v.1.15,2013-02-09 04:52:00,
2013-02-08 23:53:00,25.7,20.7,29.94,WNW,295,8.0,11.0,81,0.00,,,0.05,Wunderground v.1.15,2013-02-09 04:53:00,
2013-02-08 23:57:00,25.6,20.9,29.94,NNW,335,8.0,11.0,82,0.00,,,0.05,Wunderground v.1.15,2013-02-09 04:57:00,
2013-02-08 23:58:00,25.6,20.9,29.94,NNW,338,8.0,11.0,82,0.00,,,0.05,Wunderground v.1.15,2013-02-09 04:58:00,